| time (UTC) | temp F | wind direction | speed MPH | gust MPH | rain 1hr in | rain 24hr in | rain mn in | humidity % | barometer mb |
| 20260508175627 | 89 | 236 | 0.0 | 1.0 | 0.00 | 0.00 | 0.00 | 20 | 1012.3 |
| 20260508175536 | 89 | 236 | 0.0 | 1.0 | 0.00 | 0.00 | 0.00 | 19 | 1012.3 |
| 20260508175417 | 90 | 237 | 0.0 | 1.0 | 0.00 | 0.00 | 0.00 | 19 | 1012.3 |
| 20260508175319 | 90 | 237 | 0.0 | 1.0 | 0.00 | 0.00 | 0.00 | 21 | 1012.3 |
| 20260508175248 | 90 | 238 | 0.0 | 1.0 | 0.00 | 0.00 | 0.00 | 21 | 1012.3 |
| 20260508175129 | 89 | 238 | 0.0 | 1.0 | 0.00 | 0.00 | 0.00 | 24 | 1012.2 |
| 20260508175035 | 89 | 238 | 0.0 | 1.0 | 0.00 | 0.00 | 0.00 | 23 | 1012.2 |
| 20260508174917 | 88 | 238 | 0.0 | 1.0 | 0.00 | 0.00 | 0.00 | 21 | 1012.4 |
| 20260508174826 | 88 | 244 | 0.0 | 0.0 | 0.00 | 0.00 | 0.00 | 21 | 1012.3 |
| 20260508174729 | 88 | 240 | 0.0 | 0.0 | 0.00 | 0.00 | 0.00 | 24 | 1012.4 |
| 20260508174631 | 88 | 240 | 0.0 | 0.0 | 0.00 | 0.00 | 0.00 | 23 | 1012.4 |
| 20260508174542 | 88 | 240 | 0.0 | 0.0 | 0.00 | 0.00 | 0.00 | 22 | 1012.4 |
| 20260508174428 | 88 | 240 | 0.0 | 0.0 | 0.00 | 0.00 | 0.00 | 21 | 1012.4 |
| 20260508174329 | 88 | 241 | 0.0 | 0.0 | 0.00 | 0.00 | 0.00 | 20 | 1012.4 |
| 20260508174257 | 88 | 242 | 0.0 | 0.0 | 0.00 | 0.00 | 0.00 | 20 | 1012.4 |
| 20260508174118 | 88 | 242 | 0.0 | 0.0 | 0.00 | 0.00 | 0.00 | 19 | 1012.4 |
| 20260508174020 | 89 | 242 | 0.0 | 0.0 | 0.00 | 0.00 | 0.00 | 21 | 1012.4 |
| 20260508173930 | 89 | 251 | 0.0 | 0.0 | 0.00 | 0.00 | 0.00 | 21 | 1012.4 |
| 20260508173834 | 89 | 173 | 0.0 | 0.0 | 0.00 | 0.00 | 0.00 | 23 | 1012.3 |
| 20260508173716 | 89 | 173 | 0.0 | 0.0 | 0.00 | 0.00 | 0.00 | 23 | 1012.4 |
| 20260508173618 | 88 | 174 | 0.0 | 2.0 | 0.00 | 0.00 | 0.00 | 25 | 1012.3 |
| 20260508173547 | 88 | 174 | 0.0 | 2.0 | 0.00 | 0.00 | 0.00 | 22 | 1012.4 |
| 20260508173428 | 88 | 174 | 0.0 | 2.0 | 0.00 | 0.00 | 0.00 | 20 | 1012.4 |
| 20260508173232 | 89 | 174 | 0.0 | 2.0 | 0.00 | 0.00 | 0.00 | 23 | 1012.4 |
| 20260508173151 | 89 | 174 | 0.0 | 2.0 | 0.00 | 0.00 | 0.00 | 23 | 1012.4 |
| 20260508173041 | 88 | 174 | 0.0 | 2.0 | 0.00 | 0.00 | 0.00 | 23 | 1012.4 |
| 20260508172923 | 88 | 174 | 0.0 | 2.0 | 0.00 | 0.00 | 0.00 | 23 | 1012.4 |
| 20260508172823 | 87 | 174 | 0.0 | 2.0 | 0.00 | 0.00 | 0.00 | 22 | 1012.4 |
| 20260508172732 | 87 | 175 | 0.0 | 2.0 | 0.00 | 0.00 | 0.00 | 22 | 1012.4 |
| 20260508172653 | 87 | 178 | 0.0 | 2.0 | 0.00 | 0.00 | 0.00 | 21 | 1012.5 |
| 20260508172518 | 86 | 178 | 0.0 | 0.0 | 0.00 | 0.00 | 0.00 | 22 | 1012.4 |
| 20260508172426 | 86 | 178 | 0.0 | 0.0 | 0.00 | 0.00 | 0.00 | 22 | 1012.4 |
| 20260508172354 | 86 | 178 | 0.0 | 0.0 | 0.00 | 0.00 | 0.00 | 24 | 1012.4 |
| 20260508172235 | 86 | 178 | 0.0 | 0.0 | 0.00 | 0.00 | 0.00 | 20 | 1012.3 |
| 20260508172116 | 87 | 178 | 0.0 | 0.0 | 0.00 | 0.00 | 0.00 | 21 | 1012.4 |
| 20260508172046 | 86 | 176 | 0.0 | 0.0 | 0.00 | 0.00 | 0.00 | 22 | 1012.4 |
| 20260508171927 | 86 | 176 | 0.0 | 0.0 | 0.00 | 0.00 | 0.00 | 21 | 1012.4 |
| 20260508171832 | 86 | 176 | 0.0 | 0.0 | 0.00 | 0.00 | 0.00 | 21 | 1012.4 |
| 20260508171742 | 86 | 176 | 0.0 | 0.0 | 0.00 | 0.00 | 0.00 | 21 | 1012.4 |
| 20260508171622 | 86 | 176 | 0.0 | 0.0 | 0.00 | 0.00 | 0.00 | 22 | 1012.5 |
| 20260508171530 | 86 | 176 | 0.0 | 0.0 | 0.00 | 0.00 | 0.00 | 21 | 1012.6 |
| 20260508171432 | 86 | 176 | 0.0 | 0.0 | 0.00 | 0.00 | 0.00 | 22 | 1012.5 |
| 20260508171331 | 86 | 176 | 0.0 | 0.0 | 0.00 | 0.00 | 0.00 | 23 | 1012.5 |
| 20260508171241 | 86 | 176 | 0.0 | 0.0 | 0.00 | 0.00 | 0.00 | 21 | 1012.5 |
| 20260508171127 | 86 | 176 | 0.0 | 2.0 | 0.00 | 0.00 | 0.00 | 21 | 1012.5 |
| 20260508171028 | 86 | 176 | 0.0 | 2.0 | 0.00 | 0.00 | 0.00 | 22 | 1012.5 |
| 20260508170929 | 86 | 176 | 0.0 | 2.0 | 0.00 | 0.00 | 0.00 | 21 | 1012.5 |
| 20260508170839 | 86 | 184 | 0.0 | 2.0 | 0.00 | 0.00 | 0.00 | 21 | 1012.5 |
| 20260508170720 | 86 | 184 | 0.0 | 2.0 | 0.00 | 0.00 | 0.00 | 22 | 1012.5 |
| 20260508170640 | 86 | 184 | 0.0 | 2.0 | 0.00 | 0.00 | 0.00 | 21 | 1012.5 |
| 20260508170532 | 86 | 184 | 0.0 | 2.0 | 0.00 | 0.00 | 0.00 | 25 | 1012.5 |
| 20260508170434 | 86 | 190 | 0.0 | 2.0 | 0.00 | 0.00 | 0.00 | 22 | 1012.6 |
| 20260508170316 | 86 | 194 | 0.0 | 2.0 | 0.00 | 0.00 | 0.00 | 22 | 1012.5 |
| 20260508170224 | 86 | 183 | 0.0 | 2.0 | 0.00 | 0.00 | 0.00 | 27 | 1012.7 |
| 20260508170126 | 86 | 183 | 0.0 | 2.0 | 0.00 | 0.00 | 0.00 | 21 | 1012.5 |
| 20260508170041 | 86 | 183 | 0.0 | 2.0 | 0.00 | 0.00 | 0.00 | 22 | 1012.5 |
| 20260508165942 | 86 | 183 | 0.0 | 2.0 | 0.00 | 0.00 | 0.00 | 22 | 1012.5 |
| 20260508165823 | 86 | 183 | 0.0 | 0.0 | 0.00 | 0.00 | 0.00 | 22 | 1012.6 |
| 20260508165732 | 86 | 183 | 0.0 | 0.0 | 0.00 | 0.00 | 0.00 | 22 | 1012.6 |
| 20260508165634 | 86 | 183 | 0.0 | 1.0 | 0.00 | 0.00 | 0.00 | 22 | 1012.6 |
| 20260508165515 | 86 | 183 | 0.0 | 1.0 | 0.00 | 0.00 | 0.00 | 22 | 1012.7 |
| 20260508165417 | 86 | 183 | 0.0 | 1.0 | 0.00 | 0.00 | 0.00 | 23 | 1012.7 |
| 20260508165324 | 86 | 183 | 0.0 | 1.0 | 0.00 | 0.00 | 0.00 | 24 | 1012.7 |
| 20260508165230 | 85 | 183 | 0.0 | 1.0 | 0.00 | 0.00 | 0.00 | 23 | 1012.6 |
| 20260508165140 | 85 | 183 | 0.0 | 1.0 | 0.00 | 0.00 | 0.00 | 22 | 1012.6 |
| 20260508165041 | 85 | 183 | 0.0 | 1.0 | 0.00 | 0.00 | 0.00 | 23 | 1012.7 |
| 20260508164922 | 85 | 183 | 0.0 | 1.0 | 0.00 | 0.00 | 0.00 | 23 | 1012.7 |
| 20260508164831 | 85 | 183 | 0.0 | 1.0 | 0.00 | 0.00 | 0.00 | 22 | 1012.7 |
| 20260508164732 | 85 | 183 | 0.0 | 1.0 | 0.00 | 0.00 | 0.00 | 23 | 1012.7 |
| 20260508164618 | 86 | 183 | 0.0 | 1.0 | 0.00 | 0.00 | 0.00 | 23 | 1012.7 |
| 20260508164528 | 86 | 183 | 0.0 | 0.0 | 0.00 | 0.00 | 0.00 | 25 | 1012.8 |
| 20260508164429 | 85 | 183 | 0.0 | 0.0 | 0.00 | 0.00 | 0.00 | 25 | 1012.7 |
| 20260508164338 | 85 | 183 | 0.0 | 0.0 | 0.00 | 0.00 | 0.00 | 25 | 1012.7 |
| 20260508164216 | 85 | 183 | 0.0 | 0.0 | 0.00 | 0.00 | 0.00 | 25 | 1012.7 |
| 20260508164118 | 85 | 183 | 0.0 | 0.0 | 0.00 | 0.00 | 0.00 | 24 | 1012.8 |
| 20260508164027 | 85 | 183 | 0.0 | 3.0 | 0.00 | 0.00 | 0.00 | 27 | 1012.7 |
| 20260508163931 | 85 | 183 | 0.0 | 3.0 | 0.00 | 0.00 | 0.00 | 25 | 1012.7 |
| 20260508163901 | 85 | 183 | 0.0 | 3.0 | 0.00 | 0.00 | 0.00 | 23 | 1012.7 |
| 20260508163722 | 85 | 183 | 0.0 | 3.0 | 0.00 | 0.00 | 0.00 | 25 | 1012.7 |
| 20260508163625 | 85 | 183 | 0.0 | 3.0 | 0.00 | 0.00 | 0.00 | 25 | 1012.7 |
| 20260508163527 | 84 | 183 | 0.0 | 3.0 | 0.00 | 0.00 | 0.00 | 23 | 1012.6 |
| 20260508163436 | 84 | 183 | 0.0 | 3.0 | 0.00 | 0.00 | 0.00 | 25 | 1012.6 |
| 20260508163321 | 84 | 183 | 1.0 | 3.0 | 0.00 | 0.00 | 0.00 | 26 | 1012.6 |
| 20260508163223 | 84 | 183 | 1.0 | 3.0 | 0.00 | 0.00 | 0.00 | 23 | 1012.6 |
| 20260508163152 | 84 | 184 | 1.0 | 3.0 | 0.00 | 0.00 | 0.00 | 23 | 1012.6 |
| 20260508163033 | 84 | 184 | 1.0 | 3.0 | 0.00 | 0.00 | 0.00 | 25 | 1012.6 |
| 20260508162915 | 83 | 186 | 0.0 | 3.0 | 0.00 | 0.00 | 0.00 | 24 | 1012.6 |
| 20260508162844 | 83 | 186 | 1.0 | 3.0 | 0.00 | 0.00 | 0.00 | 25 | 1012.7 |
| 20260508162724 | 83 | 186 | 1.0 | 3.0 | 0.00 | 0.00 | 0.00 | 24 | 1012.6 |
| 20260508162637 | 83 | 186 | 1.0 | 3.0 | 0.00 | 0.00 | 0.00 | 25 | 1012.7 |
| 20260508162519 | 83 | 187 | 0.0 | 3.0 | 0.00 | 0.00 | 0.00 | 25 | 1012.7 |
| 20260508162421 | 83 | 188 | 0.0 | 2.0 | 0.00 | 0.00 | 0.00 | 25 | 1012.7 |
| 20260508162329 | 83 | 188 | 0.0 | 2.0 | 0.00 | 0.00 | 0.00 | 26 | 1012.7 |
| 20260508162230 | 83 | 188 | 0.0 | 2.0 | 0.00 | 0.00 | 0.00 | 26 | 1012.7 |
| 20260508162140 | 82 | 188 | 0.0 | 3.0 | 0.00 | 0.00 | 0.00 | 26 | 1012.7 |
| 20260508162042 | 82 | 188 | 0.0 | 3.0 | 0.00 | 0.00 | 0.00 | 25 | 1012.6 |
| 20260508161925 | 82 | 188 | 0.0 | 3.0 | 0.00 | 0.00 | 0.00 | 25 | 1012.7 |
| 20260508161854 | 82 | 188 | 0.0 | 3.0 | 0.00 | 0.00 | 0.00 | 25 | 1012.7 |
| 20260508161803 | 83 | 188 | 1.0 | 3.0 | 0.00 | 0.00 | 0.00 | 25 | 1012.7 |
| 20260508161624 | 83 | 188 | 1.0 | 3.0 | 0.00 | 0.00 | 0.00 | 25 | 1012.7 |
| 20260508161525 | 83 | 188 | 1.0 | 3.0 | 0.00 | 0.00 | 0.00 | 26 | 1012.7 |
| 20260508161455 | 83 | 188 | 1.0 | 3.0 | 0.00 | 0.00 | 0.00 | 28 | 1012.7 |
| 20260508161316 | 82 | 189 | 0.0 | 2.0 | 0.00 | 0.00 | 0.00 | 28 | 1012.8 |
| 20260508161219 | 82 | 189 | 0.0 | 2.0 | 0.00 | 0.00 | 0.00 | 29 | 1012.8 |
| 20260508161148 | 82 | 188 | 0.0 | 2.0 | 0.00 | 0.00 | 0.00 | 29 | 1012.8 |
| 20260508161028 | 82 | 188 | 0.0 | 2.0 | 0.00 | 0.00 | 0.00 | 32 | 1012.8 |
| 20260508160938 | 81 | 188 | 0.0 | 2.0 | 0.00 | 0.00 | 0.00 | 28 | 1012.8 |
| 20260508160819 | 81 | 188 | 0.0 | 2.0 | 0.00 | 0.00 | 0.00 | 28 | 1012.6 |
| 20260508160741 | 81 | 188 | 0.0 | 2.0 | 0.00 | 0.00 | 0.00 | 30 | 1012.7 |
| 20260508160628 | 81 | 188 | 0.0 | 2.0 | 0.00 | 0.00 | 0.00 | 28 | 1012.8 |
| 20260508160534 | 81 | 176 | 1.0 | 2.0 | 0.00 | 0.00 | 0.00 | 27 | 1012.8 |
| 20260508160416 | 80 | 176 | 0.0 | 2.0 | 0.00 | 0.00 | 0.00 | 29 | 1012.8 |
| 20260508160325 | 80 | 176 | 0.0 | 2.0 | 0.00 | 0.00 | 0.00 | 30 | 1012.8 |
| 20260508160227 | 80 | 176 | 0.0 | 2.0 | 0.00 | 0.00 | 0.00 | 28 | 1012.8 |
| 20260508160128 | 80 | 176 | 0.0 | 2.0 | 0.00 | 0.00 | 0.00 | 31 | 1012.8 |
| 20260508160049 | 80 | 176 | 0.0 | 2.0 | 0.00 | 0.00 | 0.00 | 29 | 1012.7 |
| 20260508155921 | 80 | 176 | 1.0 | 2.0 | 0.00 | 0.00 | 0.00 | 30 | 1012.8 |
| 20260508155831 | 79 | 176 | 0.0 | 2.0 | 0.00 | 0.00 | 0.00 | 30 | 1012.8 |
| 20260508155752 | 79 | 174 | 0.0 | 2.0 | 0.00 | 0.00 | 0.00 | 28 | 1012.8 |
| 20260508155641 | 79 | 174 | 0.0 | 0.0 | 0.00 | 0.00 | 0.00 | 28 | 1012.8 |
| 20260508155522 | 79 | 174 | 0.0 | 0.0 | 0.00 | 0.00 | 0.00 | 30 | 1012.8 |
| 20260508155425 | 79 | 174 | 0.0 | 0.0 | 0.00 | 0.00 | 0.00 | 30 | 1012.8 |
| 20260508155328 | 79 | 174 | 0.0 | 0.0 | 0.00 | 0.00 | 0.00 | 30 | 1012.7 |
| 20260508155222 | 79 | 174 | 0.0 | 0.0 | 0.00 | 0.00 | 0.00 | 29 | 1012.8 |
| 20260508155121 | 79 | 174 | 0.0 | 0.0 | 0.00 | 0.00 | 0.00 | 31 | 1012.7 |
| 20260508155050 | 79 | 140 | 0.0 | 0.0 | 0.00 | 0.00 | 0.00 | 31 | 1012.7 |
| 20260508154950 | 79 | 140 | 0.0 | 0.0 | 0.00 | 0.00 | 0.00 | 30 | 1012.8 |
| 20260508154839 | 79 | 140 | 0.0 | 0.0 | 0.00 | 0.00 | 0.00 | 29 | 1012.8 |
| 20260508154720 | 79 | 140 | 0.0 | 3.0 | 0.00 | 0.00 | 0.00 | 31 | 1012.7 |
| 20260508154627 | 79 | 140 | 0.0 | 3.0 | 0.00 | 0.00 | 0.00 | 31 | 1012.8 |
| 20260508154529 | 78 | 140 | 0.0 | 3.0 | 0.00 | 0.00 | 0.00 | 31 | 1012.7 |
| 20260508154436 | 78 | 140 | 0.0 | 3.0 | 0.00 | 0.00 | 0.00 | 29 | 1012.8 |
| 20260508154318 | 78 | 140 | 0.0 | 3.0 | 0.00 | 0.00 | 0.00 | 32 | 1012.8 |
| 20260508154219 | 78 | 140 | 0.0 | 3.0 | 0.00 | 0.00 | 0.00 | 32 | 1012.8 |
| 20260508154128 | 78 | 140 | 0.0 | 3.0 | 0.00 | 0.00 | 0.00 | 32 | 1012.8 |
| 20260508154030 | 77 | 140 | 0.0 | 3.0 | 0.00 | 0.00 | 0.00 | 32 | 1012.9 |
| 20260508153916 | 77 | 140 | 0.0 | 2.0 | 0.00 | 0.00 | 0.00 | 30 | 1012.9 |
| 20260508153845 | 77 | 140 | 0.0 | 1.0 | 0.00 | 0.00 | 0.00 | 32 | 1012.9 |
| 20260508153726 | 77 | 140 | 0.0 | 2.0 | 0.00 | 0.00 | 0.00 | 30 | 1012.9 |
| 20260508153632 | 77 | 140 | 0.0 | 2.0 | 0.00 | 0.00 | 0.00 | 33 | 1012.9 |
| 20260508153515 | 77 | 140 | 0.0 | 2.0 | 0.00 | 0.00 | 0.00 | 31 | 1012.9 |
| 20260508153417 | 77 | 140 | 0.0 | 2.0 | 0.00 | 0.00 | 0.00 | 31 | 1012.9 |
| 20260508153324 | 77 | 140 | 0.0 | 2.0 | 0.00 | 0.00 | 0.00 | 31 | 1012.9 |
| 20260508153228 | 76 | 140 | 0.0 | 2.0 | 0.00 | 0.00 | 0.00 | 31 | 1012.9 |
| 20260508153139 | 76 | 140 | 0.0 | 2.0 | 0.00 | 0.00 | 0.00 | 31 | 1012.9 |
| 20260508153040 | 76 | 140 | 0.0 | 2.0 | 0.00 | 0.00 | 0.00 | 34 | 1012.9 |
| 20260508152925 | 76 | 140 | 0.0 | 2.0 | 0.00 | 0.00 | 0.00 | 34 | 1012.9 |
| 20260508152827 | 76 | 140 | 0.0 | 2.0 | 0.00 | 0.00 | 0.00 | 33 | 1012.9 |
| 20260508152728 | 76 | 140 | 0.0 | 2.0 | 0.00 | 0.00 | 0.00 | 32 | 1012.9 |
| 20260508152621 | 75 | 140 | 0.0 | 2.0 | 0.00 | 0.00 | 0.00 | 32 | 1012.9 |
| 20260508152521 | 75 | 140 | 0.0 | 2.0 | 0.00 | 0.00 | 0.00 | 34 | 1012.9 |
| 20260508152429 | 75 | 140 | 0.0 | 2.0 | 0.00 | 0.00 | 0.00 | 33 | 1013.0 |
| 20260508152330 | 75 | 140 | 0.0 | 2.0 | 0.00 | 0.00 | 0.00 | 32 | 1012.9 |
| 20260508152239 | 75 | 140 | 0.0 | 2.0 | 0.00 | 0.00 | 0.00 | 32 | 1012.9 |
| 20260508152118 | 75 | 140 | 0.0 | 2.0 | 0.00 | 0.00 | 0.00 | 32 | 1012.9 |
| 20260508152021 | 75 | 140 | 0.0 | 3.0 | 0.00 | 0.00 | 0.00 | 32 | 1013.0 |
| 20260508151930 | 75 | 140 | 0.0 | 3.0 | 0.00 | 0.00 | 0.00 | 33 | 1012.9 |
| 20260508151815 | 75 | 140 | 0.0 | 3.0 | 0.00 | 0.00 | 0.00 | 33 | 1012.9 |
| 20260508151716 | 74 | 140 | 0.0 | 3.0 | 0.00 | 0.00 | 0.00 | 33 | 1012.9 |
| 20260508151625 | 74 | 140 | 0.0 | 3.0 | 0.00 | 0.00 | 0.00 | 33 | 1012.9 |
| 20260508151527 | 74 | 140 | 0.0 | 3.0 | 0.00 | 0.00 | 0.00 | 33 | 1012.9 |
| 20260508151429 | 74 | 140 | 0.0 | 3.0 | 0.00 | 0.00 | 0.00 | 33 | 1012.8 |
| 20260508151338 | 74 | 140 | 1.0 | 3.0 | 0.00 | 0.00 | 0.00 | 33 | 1012.8 |
| 20260508151224 | 74 | 140 | 1.0 | 3.0 | 0.00 | 0.00 | 0.00 | 33 | 1012.9 |
| 20260508151125 | 74 | 140 | 1.0 | 3.0 | 0.00 | 0.00 | 0.00 | 34 | 1012.9 |
| 20260508151033 | 74 | 139 | 0.0 | 1.0 | 0.00 | 0.00 | 0.00 | 34 | 1012.9 |
| 20260508150915 | 74 | 137 | 0.0 | 1.0 | 0.00 | 0.00 | 0.00 | 34 | 1013.0 |
| 20260508150818 | 74 | 137 | 0.0 | 1.0 | 0.00 | 0.00 | 0.00 | 34 | 1013.0 |
| 20260508150719 | 74 | 137 | 0.0 | 1.0 | 0.00 | 0.00 | 0.00 | 34 | 1013.0 |
| 20260508150648 | 74 | 137 | 0.0 | 1.0 | 0.00 | 0.00 | 0.00 | 34 | 1013.1 |
| 20260508150539 | 74 | 137 | 0.0 | 1.0 | 0.00 | 0.00 | 0.00 | 35 | 1013.1 |
| 20260508150420 | 73 | 137 | 0.0 | 1.0 | 0.00 | 0.00 | 0.00 | 34 | 1013.1 |
| 20260508150321 | 73 | 137 | 0.0 | 1.0 | 0.00 | 0.00 | 0.00 | 34 | 1013.1 |
| 20260508150231 | 73 | 137 | 0.0 | 1.0 | 0.00 | 0.00 | 0.00 | 34 | 1013.1 |
| 20260508150131 | 73 | 137 | 0.0 | 1.0 | 0.00 | 0.00 | 0.00 | 34 | 1013.1 |
| 20260508150053 | 73 | 137 | 0.0 | 1.0 | 0.00 | 0.00 | 0.00 | 34 | 1013.1 |
| 20260508145928 | 73 | 137 | 0.0 | 2.0 | 0.00 | 0.00 | 0.00 | 34 | 1013.0 |
| 20260508145828 | 73 | 137 | 0.0 | 2.0 | 0.00 | 0.00 | 0.00 | 35 | 1012.9 |
| 20260508145738 | 73 | 137 | 0.0 | 2.0 | 0.00 | 0.00 | 0.00 | 35 | 1012.9 |
| 20260508145617 | 73 | 137 | 0.0 | 2.0 | 0.00 | 0.00 | 0.00 | 35 | 1013.0 |
| 20260508145545 | 73 | 141 | 0.0 | 2.0 | 0.00 | 0.00 | 0.00 | 35 | 1013.0 |
| 20260508145446 | 73 | 141 | 0.0 | 2.0 | 0.00 | 0.00 | 0.00 | 35 | 1012.9 |
| 20260508145334 | 73 | 141 | 0.0 | 2.0 | 0.00 | 0.00 | 0.00 | 36 | 1013.0 |
| 20260508145219 | 72 | 141 | 0.0 | 2.0 | 0.00 | 0.00 | 0.00 | 36 | 1013.0 |
| 20260508145121 | 72 | 141 | 0.0 | 1.0 | 0.00 | 0.00 | 0.00 | 36 | 1012.9 |
| 20260508145021 | 72 | 141 | 0.0 | 1.0 | 0.00 | 0.00 | 0.00 | 36 | 1012.9 |
| 20260508144949 | 72 | 141 | 0.0 | 1.0 | 0.00 | 0.00 | 0.00 | 36 | 1012.9 |
| 20260508144830 | 72 | 141 | 0.0 | 1.0 | 0.00 | 0.00 | 0.00 | 36 | 1013.0 |
| 20260508144740 | 72 | 141 | 0.0 | 1.0 | 0.00 | 0.00 | 0.00 | 36 | 1013.0 |
| 20260508144642 | 72 | 241 | 0.0 | 0.0 | 0.00 | 0.00 | 0.00 | 36 | 1012.9 |
| 20260508144533 | 72 | 241 | 0.0 | 0.0 | 0.00 | 0.00 | 0.00 | 36 | 1012.9 |
| 20260508144435 | 72 | 241 | 0.0 | 0.0 | 0.00 | 0.00 | 0.00 | 37 | 1013.0 |
| 20260508144317 | 71 | 241 | 0.0 | 0.0 | 0.00 | 0.00 | 0.00 | 37 | 1012.9 |
| 20260508144218 | 71 | 241 | 0.0 | 0.0 | 0.00 | 0.00 | 0.00 | 37 | 1012.8 |
| 20260508144128 | 71 | 241 | 0.0 | 0.0 | 0.00 | 0.00 | 0.00 | 37 | 1012.8 |
| 20260508144029 | 71 | 241 | 0.0 | 0.0 | 0.00 | 0.00 | 0.00 | 37 | 1012.7 |
| 20260508143938 | 71 | 241 | 0.0 | 0.0 | 0.00 | 0.00 | 0.00 | 37 | 1012.7 |
| 20260508143823 | 71 | 241 | 0.0 | 1.0 | 0.00 | 0.00 | 0.00 | 38 | 1012.7 |
| 20260508143746 | 71 | 241 | 0.0 | 1.0 | 0.00 | 0.00 | 0.00 | 38 | 1012.7 |
| 20260508143633 | 70 | 241 | 0.0 | 1.0 | 0.00 | 0.00 | 0.00 | 38 | 1012.7 |
| 20260508143535 | 70 | 241 | 0.0 | 1.0 | 0.00 | 0.00 | 0.00 | 38 | 1012.7 |
| 20260508143416 | 70 | 241 | 0.0 | 2.0 | 0.00 | 0.00 | 0.00 | 39 | 1012.7 |
| 20260508143324 | 70 | 241 | 0.0 | 2.0 | 0.00 | 0.00 | 0.00 | 39 | 1012.7 |
| 20260508143225 | 70 | 241 | 0.0 | 2.0 | 0.00 | 0.00 | 0.00 | 39 | 1012.8 |
| 20260508143138 | 70 | 241 | 0.0 | 2.0 | 0.00 | 0.00 | 0.00 | 39 | 1012.7 |
| 20260508143018 | 70 | 241 | 0.0 | 2.0 | 0.00 | 0.00 | 0.00 | 39 | 1012.7 |
| 20260508142927 | 70 | 241 | 0.0 | 2.0 | 0.00 | 0.00 | 0.00 | 39 | 1012.7 |
| 20260508142827 | 69 | 241 | 0.0 | 2.0 | 0.00 | 0.00 | 0.00 | 39 | 1012.8 |
| 20260508142735 | 69 | 241 | 0.0 | 2.0 | 0.00 | 0.00 | 0.00 | 41 | 1012.7 |
| 20260508142616 | 69 | 241 | 0.0 | 2.0 | 0.00 | 0.00 | 0.00 | 41 | 1012.8 |
| 20260508142517 | 69 | 241 | 0.0 | 0.0 | 0.00 | 0.00 | 0.00 | 41 | 1012.7 |
| 20260508142430 | 69 | 241 | 0.0 | 0.0 | 0.00 | 0.00 | 0.00 | 40 | 1012.7 |
| 20260508142328 | 69 | 241 | 0.0 | 0.0 | 0.00 | 0.00 | 0.00 | 40 | 1012.7 |
| 20260508142229 | 69 | 241 | 0.0 | 0.0 | 0.00 | 0.00 | 0.00 | 41 | 1012.7 |
| 20260508142139 | 69 | 241 | 0.0 | 0.0 | 0.00 | 0.00 | 0.00 | 40 | 1012.7 |
| 20260508142019 | 69 | 241 | 0.0 | 0.0 | 0.00 | 0.00 | 0.00 | 41 | 1012.7 |
| 20260508141948 | 69 | 241 | 0.0 | 0.0 | 0.00 | 0.00 | 0.00 | 41 | 1012.8 |
| 20260508141827 | 69 | 241 | 0.0 | 0.0 | 0.00 | 0.00 | 0.00 | 41 | 1012.8 |
| 20260508141718 | 68 | 241 | 0.0 | 0.0 | 0.00 | 0.00 | 0.00 | 41 | 1012.8 |
| 20260508141647 | 68 | 241 | 0.0 | 0.0 | 0.00 | 0.00 | 0.00 | 42 | 1012.8 |
| 20260508141528 | 68 | 241 | 0.0 | 0.0 | 0.00 | 0.00 | 0.00 | 42 | 1012.8 |
| 20260508141428 | 68 | 241 | 0.0 | 0.0 | 0.00 | 0.00 | 0.00 | 41 | 1012.8 |
| 20260508141339 | 68 | 241 | 0.0 | 0.0 | 0.00 | 0.00 | 0.00 | 41 | 1012.8 |
| 20260508141220 | 68 | 241 | 0.0 | 0.0 | 0.00 | 0.00 | 0.00 | 41 | 1012.7 |
| 20260508141121 | 68 | 241 | 0.0 | 0.0 | 0.00 | 0.00 | 0.00 | 41 | 1012.7 |
| 20260508141028 | 68 | 241 | 0.0 | 0.0 | 0.00 | 0.00 | 0.00 | 42 | 1012.7 |
| 20260508140936 | 68 | 360 | 0.0 | 0.0 | 0.00 | 0.00 | 0.00 | 41 | 1012.7 |
| 20260508140817 | 68 | 241 | 0.0 | 0.0 | 0.00 | 0.00 | 0.00 | 41 | 1012.7 |
| 20260508140718 | 68 | 241 | 0.0 | 0.0 | 0.00 | 0.00 | 0.00 | 41 | 1012.6 |
| 20260508140647 | 68 | 241 | 0.0 | 0.0 | 0.00 | 0.00 | 0.00 | 41 | 1012.6 |
| 20260508140528 | 68 | 241 | 0.0 | 0.0 | 0.00 | 0.00 | 0.00 | 41 | 1012.6 |
| 20260508140421 | 68 | 241 | 0.0 | 0.0 | 0.00 | 0.00 | 0.00 | 41 | 1012.6 |
| 20260508140322 | 68 | 241 | 0.0 | 0.0 | 0.00 | 0.00 | 0.00 | 41 | 1012.6 |
| 20260508140250 | 68 | 241 | 0.0 | 0.0 | 0.00 | 0.00 | 0.00 | 41 | 1012.6 |
| 20260508140158 | 67 | 241 | 0.0 | 0.0 | 0.00 | 0.00 | 0.00 | 41 | 1012.6 |
| 20260508140030 | 68 | 241 | 0.0 | 0.0 | 0.00 | 0.00 | 0.00 | 41 | 1012.6 |
| 20260508135919 | 67 | 241 | 0.0 | 0.0 | 0.00 | 0.00 | 0.00 | 40 | 1012.6 |
| 20260508135820 | 67 | 241 | 0.0 | 0.0 | 0.00 | 0.00 | 0.00 | 40 | 1012.6 |
| 20260508135704 | 67 | 241 | 0.0 | 0.0 | 0.00 | 0.00 | 0.00 | 41 | 1012.5 |
| 20260508135423 | 67 | 241 | 0.0 | 0.0 | 0.00 | 0.00 | 0.00 | 40 | 1012.5 |
| 20260508135322 | 67 | 241 | 0.0 | 0.0 | 0.00 | 0.00 | 0.00 | 41 | 1012.5 |
| 20260508135231 | 67 | 241 | 0.0 | 0.0 | 0.00 | 0.00 | 0.00 | 41 | 1012.5 |
| 20260508135131 | 67 | 241 | 0.0 | 0.0 | 0.00 | 0.00 | 0.00 | 41 | 1012.5 |
| 20260508135040 | 67 | 241 | 0.0 | 0.0 | 0.00 | 0.00 | 0.00 | 40 | 1012.5 |
| 20260508134922 | 67 | 241 | 0.0 | 0.0 | 0.00 | 0.00 | 0.00 | 41 | 1012.4 |
| 20260508134828 | 67 | 241 | 0.0 | 0.0 | 0.00 | 0.00 | 0.00 | 43 | 1012.4 |
| 20260508134729 | 67 | 241 | 0.0 | 0.0 | 0.00 | 0.00 | 0.00 | 42 | 1012.4 |
| 20260508134639 | 67 | 241 | 0.0 | 0.0 | 0.00 | 0.00 | 0.00 | 40 | 1012.4 |
| 20260508134521 | 67 | 241 | 0.0 | 0.0 | 0.00 | 0.00 | 0.00 | 40 | 1012.4 |
| 20260508134423 | 67 | 241 | 0.0 | 0.0 | 0.00 | 0.00 | 0.00 | 41 | 1012.4 |
| 20260508134326 | 67 | 241 | 0.0 | 0.0 | 0.00 | 0.00 | 0.00 | 40 | 1012.4 |
| 20260508134219 | 67 | 241 | 0.0 | 0.0 | 0.00 | 0.00 | 0.00 | 41 | 1012.4 |
| 20260508134119 | 67 | 241 | 0.0 | 0.0 | 0.00 | 0.00 | 0.00 | 40 | 1012.4 |
| 20260508134028 | 67 | 241 | 0.0 | 0.0 | 0.00 | 0.00 | 0.00 | 40 | 1012.4 |
| 20260508133929 | 67 | 241 | 0.0 | 0.0 | 0.00 | 0.00 | 0.00 | 40 | 1012.4 |
| 20260508133857 | 67 | 241 | 0.0 | 0.0 | 0.00 | 0.00 | 0.00 | 40 | 1012.4 |
| 20260508133738 | 67 | 241 | 0.0 | 0.0 | 0.00 | 0.00 | 0.00 | 40 | 1012.4 |
| 20260508133645 | 67 | 241 | 0.0 | 0.0 | 0.00 | 0.00 | 0.00 | 40 | 1012.4 |
| 20260508133529 | 67 | 241 | 0.0 | 0.0 | 0.00 | 0.00 | 0.00 | 40 | 1012.3 |
| 20260508133459 | 67 | 241 | 0.0 | 0.0 | 0.00 | 0.00 | 0.00 | 40 | 1012.3 |
| 20260508133318 | 67 | 241 | 0.0 | 0.0 | 0.00 | 0.00 | 0.00 | 39 | 1012.3 |
| 20260508133228 | 67 | 241 | 0.0 | 0.0 | 0.00 | 0.00 | 0.00 | 39 | 1012.3 |
| 20260508133128 | 67 | 262 | 0.0 | 0.0 | 0.00 | 0.00 | 0.00 | 39 | 1012.2 |
| 20260508133030 | 67 | 261 | 0.0 | 0.0 | 0.00 | 0.00 | 0.00 | 39 | 1012.3 |
| 20260508132939 | 67 | 261 | 0.0 | 0.0 | 0.00 | 0.00 | 0.00 | 39 | 1012.3 |
| 20260508132825 | 67 | 261 | 0.0 | 0.0 | 0.00 | 0.00 | 0.00 | 39 | 1012.3 |
| 20260508132728 | 67 | 261 | 0.0 | 0.0 | 0.00 | 0.00 | 0.00 | 39 | 1012.2 |
| 20260508132616 | 67 | 262 | 0.0 | 0.0 | 0.00 | 0.00 | 0.00 | 39 | 1012.3 |
| 20260508132518 | 67 | 262 | 0.0 | 0.0 | 0.00 | 0.00 | 0.00 | 39 | 1012.3 |
| 20260508132420 | 67 | 261 | 0.0 | 0.0 | 0.00 | 0.00 | 0.00 | 38 | 1012.3 |
| 20260508132328 | 66 | 261 | 0.0 | 0.0 | 0.00 | 0.00 | 0.00 | 38 | 1012.2 |
| 20260508132228 | 66 | 261 | 0.0 | 0.0 | 0.00 | 0.00 | 0.00 | 38 | 1012.3 |
| 20260508132142 | 66 | 262 | 0.0 | 0.0 | 0.00 | 0.00 | 0.00 | 38 | 1012.3 |
| 20260508132024 | 66 | 262 | 0.0 | 0.0 | 0.00 | 0.00 | 0.00 | 38 | 1012.2 |
| 20260508131926 | 66 | 262 | 0.0 | 0.0 | 0.00 | 0.00 | 0.00 | 38 | 1012.2 |
| 20260508131828 | 66 | 262 | 0.0 | 0.0 | 0.00 | 0.00 | 0.00 | 38 | 1012.1 |
| 20260508131738 | 66 | 262 | 0.0 | 0.0 | 0.00 | 0.00 | 0.00 | 38 | 1012.1 |
| 20260508131620 | 66 | 262 | 0.0 | 0.0 | 0.00 | 0.00 | 0.00 | 38 | 1012.2 |
| 20260508131526 | 66 | 262 | 0.0 | 0.0 | 0.00 | 0.00 | 0.00 | 38 | 1012.0 |
| 20260508131436 | 66 | 262 | 0.0 | 0.0 | 0.00 | 0.00 | 0.00 | 39 | 1012.0 |
| 20260508131316 | 66 | 262 | 0.0 | 0.0 | 0.00 | 0.00 | 0.00 | 38 | 1011.9 |
| 20260508131237 | 66 | 262 | 0.0 | 0.0 | 0.00 | 0.00 | 0.00 | 38 | 1012.0 |
| 20260508131145 | 66 | 262 | 0.0 | 0.0 | 0.00 | 0.00 | 0.00 | 38 | 1012.0 |
| 20260508131115 | 66 | 262 | 0.0 | 0.0 | 0.00 | 0.00 | 0.00 | 38 | 1011.9 |
| 20260508130954 | 66 | 262 | 0.0 | 0.0 | 0.00 | 0.00 | 0.00 | 38 | 1011.9 |
| 20260508130819 | 66 | 262 | 0.0 | 0.0 | 0.00 | 0.00 | 0.00 | 38 | 1011.8 |
| 20260508130747 | 66 | 262 | 0.0 | 0.0 | 0.00 | 0.00 | 0.00 | 37 | 1011.8 |
| 20260508130628 | 66 | 262 | 0.0 | 0.0 | 0.00 | 0.00 | 0.00 | 37 | 1011.8 |
| 20260508130536 | 66 | 262 | 0.0 | 0.0 | 0.00 | 0.00 | 0.00 | 37 | 1011.8 |
| 20260508130417 | 66 | 262 | 0.0 | 0.0 | 0.00 | 0.00 | 0.00 | 37 | 1011.7 |
| 20260508130319 | 66 | 262 | 0.0 | 0.0 | 0.00 | 0.00 | 0.00 | 37 | 1011.7 |
| 20260508130228 | 66 | 262 | 0.0 | 0.0 | 0.00 | 0.00 | 0.00 | 38 | 1011.6 |
| 20260508130135 | 66 | 262 | 0.0 | 0.0 | 0.00 | 0.00 | 0.00 | 37 | 1011.6 |
| 20260508130028 | 66 | 262 | 0.0 | 0.0 | 0.00 | 0.00 | 0.00 | 37 | 1011.6 |
| 20260508125926 | 66 | 262 | 0.0 | 0.0 | 0.00 | 0.00 | 0.00 | 37 | 1011.6 |
| 20260508125828 | 66 | 262 | 0.0 | 0.0 | 0.00 | 0.00 | 0.00 | 37 | 1011.5 |
| 20260508125736 | 66 | 262 | 0.0 | 0.0 | 0.00 | 0.00 | 0.00 | 37 | 1011.5 |
| 20260508125616 | 66 | 262 | 0.0 | 0.0 | 0.00 | 0.00 | 0.00 | 37 | 1011.5 |
| 20260508125545 | 66 | 262 | 0.0 | 0.0 | 0.00 | 0.00 | 0.00 | 37 | 1011.5 |
| 20260508125429 | 66 | 262 | 0.0 | 0.0 | 0.00 | 0.00 | 0.00 | 37 | 1011.5 |
| 20260508125338 | 66 | 262 | 0.0 | 0.0 | 0.00 | 0.00 | 0.00 | 37 | 1011.5 |
| 20260508125221 | 66 | 262 | 0.0 | 0.0 | 0.00 | 0.00 | 0.00 | 37 | 1011.5 |
| 20260508125141 | 66 | 262 | 0.0 | 0.0 | 0.00 | 0.00 | 0.00 | 37 | 1011.6 |
| 20260508125029 | 66 | 262 | 0.0 | 0.0 | 0.00 | 0.00 | 0.00 | 37 | 1011.4 |
| 20260508124929 | 66 | 262 | 0.0 | 0.0 | 0.00 | 0.00 | 0.00 | 37 | 1011.3 |
| 20260508124838 | 66 | 262 | 0.0 | 0.0 | 0.00 | 0.00 | 0.00 | 37 | 1011.3 |
| 20260508124723 | 66 | 261 | 0.0 | 0.0 | 0.00 | 0.00 | 0.00 | 37 | 1011.4 |
| 20260508124625 | 66 | 261 | 0.0 | 0.0 | 0.00 | 0.00 | 0.00 | 37 | 1011.4 |
| 20260508124526 | 66 | 261 | 0.0 | 0.0 | 0.00 | 0.00 | 0.00 | 37 | 1011.4 |
| 20260508124436 | 66 | 262 | 0.0 | 0.0 | 0.00 | 0.00 | 0.00 | 37 | 1011.5 |
| 20260508124337 | 66 | 262 | 0.0 | 0.0 | 0.00 | 0.00 | 0.00 | 37 | 1011.5 |
| 20260508124217 | 66 | 262 | 0.0 | 0.0 | 0.00 | 0.00 | 0.00 | 37 | 1011.5 |
| 20260508124130 | 66 | 261 | 0.0 | 0.0 | 0.00 | 0.00 | 0.00 | 37 | 1011.4 |
| 20260508124031 | 66 | 262 | 0.0 | 0.0 | 0.00 | 0.00 | 0.00 | 37 | 1011.4 |
| 20260508123941 | 66 | 262 | 0.0 | 0.0 | 0.00 | 0.00 | 0.00 | 37 | 1011.4 |
| 20260508123823 | 66 | 262 | 0.0 | 0.0 | 0.00 | 0.00 | 0.00 | 37 | 1011.4 |
| 20260508123725 | 66 | 262 | 0.0 | 0.0 | 0.00 | 0.00 | 0.00 | 37 | 1011.4 |
| 20260508123627 | 66 | 262 | 0.0 | 0.0 | 0.00 | 0.00 | 0.00 | 37 | 1011.4 |
| 20260508123541 | 66 | 262 | 0.0 | 0.0 | 0.00 | 0.00 | 0.00 | 37 | 1011.4 |
| 20260508123423 | 66 | 262 | 0.0 | 0.0 | 0.00 | 0.00 | 0.00 | 37 | 1011.4 |
| 20260508123325 | 66 | 262 | 0.0 | 0.0 | 0.00 | 0.00 | 0.00 | 37 | 1011.4 |
| 20260508123227 | 66 | 262 | 0.0 | 0.0 | 0.00 | 0.00 | 0.00 | 37 | 1011.3 |
| 20260508123137 | 66 | 262 | 0.0 | 0.0 | 0.00 | 0.00 | 0.00 | 37 | 1011.3 |
| 20260508123039 | 67 | 262 | 0.0 | 0.0 | 0.00 | 0.00 | 0.00 | 37 | 1011.3 |
| 20260508122923 | 66 | 262 | 0.0 | 0.0 | 0.00 | 0.00 | 0.00 | 37 | 1011.3 |
| 20260508122832 | 67 | 262 | 0.0 | 0.0 | 0.00 | 0.00 | 0.00 | 37 | 1011.3 |
| 20260508122735 | 67 | 262 | 0.0 | 0.0 | 0.00 | 0.00 | 0.00 | 36 | 1011.3 |
| 20260508122704 | 67 | 262 | 0.0 | 0.0 | 0.00 | 0.00 | 0.00 | 36 | 1011.3 |
| 20260508122524 | 67 | 262 | 0.0 | 0.0 | 0.00 | 0.00 | 0.00 | 36 | 1011.3 |
| 20260508122426 | 67 | 262 | 0.0 | 0.0 | 0.00 | 0.00 | 0.00 | 36 | 1011.2 |
| 20260508122326 | 67 | 262 | 0.0 | 0.0 | 0.00 | 0.00 | 0.00 | 36 | 1011.2 |
| 20260508122219 | 67 | 262 | 0.0 | 0.0 | 0.00 | 0.00 | 0.00 | 36 | 1011.2 |
| 20260508122141 | 67 | 262 | 0.0 | 0.0 | 0.00 | 0.00 | 0.00 | 36 | 1011.3 |
| 20260508122027 | 67 | 262 | 0.0 | 0.0 | 0.00 | 0.00 | 0.00 | 36 | 1011.3 |
| 20260508121935 | 67 | 262 | 0.0 | 0.0 | 0.00 | 0.00 | 0.00 | 36 | 1011.3 |
| 20260508121857 | 67 | 262 | 0.0 | 0.0 | 0.00 | 0.00 | 0.00 | 36 | 1011.3 |
| 20260508121637 | 67 | 262 | 0.0 | 0.0 | 0.00 | 0.00 | 0.00 | 36 | 1011.3 |
| 20260508121525 | 67 | 262 | 0.0 | 0.0 | 0.00 | 0.00 | 0.00 | 36 | 1011.4 |
| 20260508121431 | 67 | 262 | 0.0 | 0.0 | 0.00 | 0.00 | 0.00 | 35 | 1011.3 |
| 20260508121332 | 67 | 262 | 0.0 | 0.0 | 0.00 | 0.00 | 0.00 | 35 | 1011.3 |
| 20260508121242 | 67 | 262 | 0.0 | 0.0 | 0.00 | 0.00 | 0.00 | 35 | 1011.3 |
| 20260508121145 | 67 | 262 | 0.0 | 0.0 | 0.00 | 0.00 | 0.00 | 35 | 1011.3 |
| 20260508121025 | 67 | 262 | 0.0 | 0.0 | 0.00 | 0.00 | 0.00 | 35 | 1011.3 |
| 20260508120935 | 67 | 262 | 0.0 | 0.0 | 0.00 | 0.00 | 0.00 | 36 | 1011.3 |
| 20260508120821 | 67 | 262 | 0.0 | 0.0 | 0.00 | 0.00 | 0.00 | 35 | 1011.3 |
| 20260508120723 | 67 | 262 | 0.0 | 0.0 | 0.00 | 0.00 | 0.00 | 35 | 1011.3 |
| 20260508120629 | 66 | 262 | 0.0 | 0.0 | 0.00 | 0.00 | 0.00 | 35 | 1011.2 |
| 20260508120536 | 66 | 262 | 0.0 | 0.0 | 0.00 | 0.00 | 0.00 | 35 | 1011.2 |
| 20260508120418 | 66 | 262 | 0.0 | 0.0 | 0.00 | 0.00 | 0.00 | 35 | 1011.3 |
| 20260508120321 | 67 | 262 | 0.0 | 0.0 | 0.00 | 0.00 | 0.00 | 35 | 1011.2 |
| 20260508120223 | 67 | 262 | 0.0 | 0.0 | 0.00 | 0.00 | 0.00 | 35 | 1011.2 |
| 20260508120136 | 66 | 262 | 0.0 | 0.0 | 0.00 | 0.00 | 0.00 | 35 | 1011.2 |
| 20260508120029 | 66 | 262 | 0.0 | 0.0 | 0.00 | 0.00 | 0.00 | 36 | 1011.1 |
| 20260508115921 | 66 | 262 | 0.0 | 0.0 | 0.00 | 0.00 | 0.00 | 36 | 1011.2 |
| 20260508115829 | 67 | 262 | 0.0 | 0.0 | 0.00 | 0.00 | 0.00 | 36 | 1011.2 |
| 20260508115731 | 67 | 262 | 0.0 | 0.0 | 0.00 | 0.00 | 0.00 | 36 | 1011.2 |
| 20260508115640 | 67 | 262 | 0.0 | 0.0 | 0.00 | 0.00 | 0.00 | 36 | 1011.2 |
| 20260508115526 | 67 | 262 | 0.0 | 0.0 | 0.00 | 0.00 | 0.00 | 36 | 1011.1 |
| 20260508115426 | 67 | 262 | 0.0 | 0.0 | 0.00 | 0.00 | 0.00 | 37 | 1011.1 |
| 20260508115327 | 67 | 262 | 0.0 | 0.0 | 0.00 | 0.00 | 0.00 | 37 | 1011.1 |
| 20260508115238 | 67 | 262 | 0.0 | 0.0 | 0.00 | 0.00 | 0.00 | 37 | 1011.1 |
| 20260508115120 | 67 | 262 | 0.0 | 0.0 | 0.00 | 0.00 | 0.00 | 37 | 1011.0 |
| 20260508115022 | 67 | 262 | 0.0 | 0.0 | 0.00 | 0.00 | 0.00 | 37 | 1011.0 |
| 20260508114950 | 67 | 262 | 0.0 | 0.0 | 0.00 | 0.00 | 0.00 | 37 | 1011.0 |
| 20260508114904 | 67 | 262 | 0.0 | 0.0 | 0.00 | 0.00 | 0.00 | 37 | 1011.0 |
| 20260508114723 | 67 | 262 | 0.0 | 0.0 | 0.00 | 0.00 | 0.00 | 37 | 1011.0 |
| 20260508114622 | 67 | 262 | 0.0 | 0.0 | 0.00 | 0.00 | 0.00 | 37 | 1010.9 |
| 20260508114524 | 67 | 262 | 0.0 | 0.0 | 0.00 | 0.00 | 0.00 | 37 | 1011.0 |
| 20260508114454 | 67 | 262 | 0.0 | 0.0 | 0.00 | 0.00 | 0.00 | 37 | 1011.0 |
| 20260508114402 | 67 | 262 | 0.0 | 0.0 | 0.00 | 0.00 | 0.00 | 36 | 1011.0 |
| 20260508114223 | 67 | 262 | 0.0 | 0.0 | 0.00 | 0.00 | 0.00 | 36 | 1011.0 |
| 20260508114149 | 67 | 262 | 0.0 | 0.0 | 0.00 | 0.00 | 0.00 | 36 | 1011.0 |
| 20260508114036 | 67 | 262 | 0.0 | 0.0 | 0.00 | 0.00 | 0.00 | 35 | 1011.0 |
| 20260508113918 | 67 | 262 | 0.0 | 0.0 | 0.00 | 0.00 | 0.00 | 35 | 1011.0 |
| 20260508113839 | 67 | 262 | 0.0 | 0.0 | 0.00 | 0.00 | 0.00 | 34 | 1011.0 |
| 20260508113727 | 67 | 262 | 0.0 | 0.0 | 0.00 | 0.00 | 0.00 | 34 | 1011.0 |
| 20260508113629 | 67 | 262 | 0.0 | 0.0 | 0.00 | 0.00 | 0.00 | 34 | 1011.0 |
| 20260508113530 | 67 | 262 | 0.0 | 0.0 | 0.00 | 0.00 | 0.00 | 33 | 1011.0 |
| 20260508113423 | 68 | 262 | 0.0 | 0.0 | 0.00 | 0.00 | 0.00 | 33 | 1011.0 |
| 20260508113324 | 68 | 262 | 0.0 | 0.0 | 0.00 | 0.00 | 0.00 | 33 | 1011.0 |
| 20260508113226 | 68 | 262 | 0.0 | 0.0 | 0.00 | 0.00 | 0.00 | 32 | 1011.0 |
| 20260508113155 | 68 | 262 | 0.0 | 0.0 | 0.00 | 0.00 | 0.00 | 32 | 1011.0 |
| 20260508113102 | 68 | 262 | 0.0 | 0.0 | 0.00 | 0.00 | 0.00 | 32 | 1011.0 |
| 20260508112923 | 68 | 262 | 0.0 | 0.0 | 0.00 | 0.00 | 0.00 | 33 | 1011.0 |
| 20260508112830 | 68 | 262 | 0.0 | 0.0 | 0.00 | 0.00 | 0.00 | 32 | 1011.0 |
| 20260508112732 | 68 | 262 | 0.0 | 0.0 | 0.00 | 0.00 | 0.00 | 32 | 1011.0 |
| 20260508112640 | 68 | 262 | 0.0 | 0.0 | 0.00 | 0.00 | 0.00 | 32 | 1011.0 |
| 20260508112521 | 68 | 262 | 0.0 | 0.0 | 0.00 | 0.00 | 0.00 | 33 | 1010.9 |
| 20260508112429 | 68 | 262 | 0.0 | 0.0 | 0.00 | 0.00 | 0.00 | 32 | 1010.9 |
| 20260508112330 | 68 | 262 | 0.0 | 0.0 | 0.00 | 0.00 | 0.00 | 32 | 1010.9 |
| 20260508112230 | 68 | 262 | 0.0 | 0.0 | 0.00 | 0.00 | 0.00 | 31 | 1010.9 |
| 20260508112141 | 68 | 262 | 0.0 | 0.0 | 0.00 | 0.00 | 0.00 | 31 | 1010.9 |
| 20260508112023 | 69 | 262 | 0.0 | 0.0 | 0.00 | 0.00 | 0.00 | 31 | 1010.8 |
| 20260508111923 | 69 | 262 | 0.0 | 0.0 | 0.00 | 0.00 | 0.00 | 31 | 1010.8 |
| 20260508111852 | 69 | 262 | 0.0 | 0.0 | 0.00 | 0.00 | 0.00 | 31 | 1010.8 |
| 20260508111718 | 69 | 262 | 0.0 | 0.0 | 0.00 | 0.00 | 0.00 | 31 | 1010.9 |
| 20260508111617 | 69 | 262 | 0.0 | 0.0 | 0.00 | 0.00 | 0.00 | 31 | 1010.8 |
| 20260508111527 | 69 | 262 | 0.0 | 0.0 | 0.00 | 0.00 | 0.00 | 31 | 1010.8 |
| 20260508111448 | 69 | 262 | 0.0 | 0.0 | 0.00 | 0.00 | 0.00 | 31 | 1010.8 |
| 20260508111340 | 69 | 262 | 0.0 | 0.0 | 0.00 | 0.00 | 0.00 | 31 | 1010.8 |
| 20260508111222 | 69 | 262 | 0.0 | 0.0 | 0.00 | 0.00 | 0.00 | 31 | 1010.8 |
| 20260508111144 | 69 | 262 | 0.0 | 0.0 | 0.00 | 0.00 | 0.00 | 31 | 1010.8 |
| 20260508111052 | 69 | 262 | 0.0 | 0.0 | 0.00 | 0.00 | 0.00 | 31 | 1010.8 |
| 20260508110940 | 69 | 262 | 0.0 | 0.0 | 0.00 | 0.00 | 0.00 | 31 | 1010.8 |
| 20260508110821 | 69 | 262 | 0.0 | 0.0 | 0.00 | 0.00 | 0.00 | 31 | 1010.7 |
| 20260508110731 | 69 | 262 | 0.0 | 0.0 | 0.00 | 0.00 | 0.00 | 31 | 1010.8 |
| 20260508110615 | 69 | 262 | 0.0 | 0.0 | 0.00 | 0.00 | 0.00 | 31 | 1010.8 |
| 20260508110515 | 69 | 262 | 0.0 | 0.0 | 0.00 | 0.00 | 0.00 | 31 | 1010.8 |
| 20260508110444 | 69 | 262 | 0.0 | 0.0 | 0.00 | 0.00 | 0.00 | 31 | 1010.8 |
| 20260508110325 | 69 | 262 | 0.0 | 0.0 | 0.00 | 0.00 | 0.00 | 31 | 1010.8 |
| 20260508110234 | 69 | 262 | 0.0 | 0.0 | 0.00 | 0.00 | 0.00 | 30 | 1010.8 |
| 20260508110115 | 70 | 262 | 0.0 | 0.0 | 0.00 | 0.00 | 0.00 | 30 | 1010.7 |
| 20260508110030 | 70 | 262 | 0.0 | 0.0 | 0.00 | 0.00 | 0.00 | 30 | 1010.8 |
| 20260508105931 | 70 | 262 | 0.0 | 0.0 | 0.00 | 0.00 | 0.00 | 30 | 1010.8 |
| 20260508105833 | 70 | 262 | 0.0 | 0.0 | 0.00 | 0.00 | 0.00 | 31 | 1010.8 |
| 20260508105720 | 70 | 262 | 0.0 | 0.0 | 0.00 | 0.00 | 0.00 | 31 | 1010.7 |
| 20260508105622 | 70 | 262 | 0.0 | 0.0 | 0.00 | 0.00 | 0.00 | 30 | 1010.6 |
| 20260508105523 | 70 | 262 | 0.0 | 0.0 | 0.00 | 0.00 | 0.00 | 30 | 1010.7 |
| 20260508105433 | 70 | 262 | 0.0 | 0.0 | 0.00 | 0.00 | 0.00 | 30 | 1010.7 |
| 20260508105354 | 70 | 262 | 0.0 | 0.0 | 0.00 | 0.00 | 0.00 | 30 | 1010.6 |
| 20260508105217 | 70 | 262 | 0.0 | 0.0 | 0.00 | 0.00 | 0.00 | 30 | 1010.7 |
| 20260508105127 | 70 | 262 | 0.0 | 0.0 | 0.00 | 0.00 | 0.00 | 29 | 1010.6 |
| 20260508105028 | 70 | 262 | 0.0 | 0.0 | 0.00 | 0.00 | 0.00 | 29 | 1010.6 |
| 20260508104940 | 70 | 262 | 0.0 | 0.0 | 0.00 | 0.00 | 0.00 | 30 | 1010.6 |
| 20260508104841 | 70 | 262 | 0.0 | 0.0 | 0.00 | 0.00 | 0.00 | 30 | 1010.6 |
| 20260508104722 | 69 | 262 | 0.0 | 0.0 | 0.00 | 0.00 | 0.00 | 30 | 1010.6 |
| 20260508104628 | 69 | 262 | 0.0 | 0.0 | 0.00 | 0.00 | 0.00 | 30 | 1010.6 |
| 20260508104537 | 69 | 262 | 0.0 | 0.0 | 0.00 | 0.00 | 0.00 | 31 | 1010.6 |
| 20260508104417 | 69 | 262 | 0.0 | 0.0 | 0.00 | 0.00 | 0.00 | 31 | 1010.5 |
| 20260508104319 | 69 | 262 | 0.0 | 0.0 | 0.00 | 0.00 | 0.00 | 31 | 1010.5 |
| 20260508104248 | 69 | 262 | 0.0 | 0.0 | 0.00 | 0.00 | 0.00 | 31 | 1010.5 |
| 20260508104129 | 69 | 262 | 0.0 | 0.0 | 0.00 | 0.00 | 0.00 | 31 | 1010.5 |
| 20260508104031 | 69 | 262 | 0.0 | 0.0 | 0.00 | 0.00 | 0.00 | 31 | 1010.6 |
| 20260508103944 | 69 | 262 | 0.0 | 0.0 | 0.00 | 0.00 | 0.00 | 30 | 1010.6 |
| 20260508103845 | 69 | 262 | 0.0 | 0.0 | 0.00 | 0.00 | 0.00 | 31 | 1010.6 |
| 20260508103733 | 69 | 262 | 0.0 | 0.0 | 0.00 | 0.00 | 0.00 | 30 | 1010.5 |
| 20260508103634 | 69 | 262 | 0.0 | 0.0 | 0.00 | 0.00 | 0.00 | 30 | 1010.5 |
| 20260508103541 | 69 | 262 | 0.0 | 0.0 | 0.00 | 0.00 | 0.00 | 31 | 1010.5 |
| 20260508103424 | 69 | 262 | 0.0 | 0.0 | 0.00 | 0.00 | 0.00 | 31 | 1010.6 |
| 20260508103326 | 69 | 262 | 0.0 | 0.0 | 0.00 | 0.00 | 0.00 | 30 | 1010.6 |
| 20260508103241 | 69 | 262 | 0.0 | 0.0 | 0.00 | 0.00 | 0.00 | 30 | 1010.6 |
| 20260508103122 | 69 | 262 | 0.0 | 0.0 | 0.00 | 0.00 | 0.00 | 30 | 1010.6 |
| 20260508103023 | 69 | 262 | 0.0 | 0.0 | 0.00 | 0.00 | 0.00 | 30 | 1010.7 |
| 20260508102925 | 69 | 262 | 0.0 | 0.0 | 0.00 | 0.00 | 0.00 | 30 | 1010.6 |
| 20260508102835 | 70 | 262 | 0.0 | 0.0 | 0.00 | 0.00 | 0.00 | 30 | 1010.7 |
| 20260508102720 | 70 | 262 | 0.0 | 0.0 | 0.00 | 0.00 | 0.00 | 30 | 1010.7 |
| 20260508102623 | 70 | 262 | 0.0 | 0.0 | 0.00 | 0.00 | 0.00 | 30 | 1010.6 |
| 20260508102552 | 70 | 262 | 0.0 | 0.0 | 0.00 | 0.00 | 0.00 | 30 | 1010.6 |
| 20260508102433 | 70 | 262 | 0.0 | 0.0 | 0.00 | 0.00 | 0.00 | 29 | 1010.7 |
| 20260508102333 | 70 | 262 | 0.0 | 0.0 | 0.00 | 0.00 | 0.00 | 29 | 1010.7 |
| 20260508102242 | 70 | 262 | 0.0 | 0.0 | 0.00 | 0.00 | 0.00 | 29 | 1010.7 |
| 20260508102123 | 70 | 262 | 0.0 | 0.0 | 0.00 | 0.00 | 0.00 | 29 | 1010.7 |
| 20260508102029 | 70 | 262 | 0.0 | 0.0 | 0.00 | 0.00 | 0.00 | 29 | 1010.7 |
| 20260508101938 | 70 | 262 | 0.0 | 0.0 | 0.00 | 0.00 | 0.00 | 29 | 1010.7 |
| 20260508101840 | 70 | 262 | 0.0 | 0.0 | 0.00 | 0.00 | 0.00 | 29 | 1010.6 |
| 20260508101721 | 70 | 262 | 0.0 | 0.0 | 0.00 | 0.00 | 0.00 | 29 | 1010.6 |
| 20260508101630 | 70 | 262 | 0.0 | 0.0 | 0.00 | 0.00 | 0.00 | 29 | 1010.7 |
| 20260508101533 | 70 | 262 | 0.0 | 0.0 | 0.00 | 0.00 | 0.00 | 29 | 1010.7 |
| 20260508101419 | 70 | 262 | 0.0 | 0.0 | 0.00 | 0.00 | 0.00 | 29 | 1010.7 |
| 20260508101321 | 70 | 262 | 0.0 | 0.0 | 0.00 | 0.00 | 0.00 | 29 | 1010.7 |
| 20260508101230 | 70 | 262 | 0.0 | 0.0 | 0.00 | 0.00 | 0.00 | 29 | 1010.8 |
| 20260508101131 | 71 | 262 | 0.0 | 0.0 | 0.00 | 0.00 | 0.00 | 29 | 1010.7 |
| 20260508101041 | 71 | 262 | 0.0 | 0.0 | 0.00 | 0.00 | 0.00 | 29 | 1010.7 |
| 20260508100923 | 71 | 262 | 0.0 | 0.0 | 0.00 | 0.00 | 0.00 | 28 | 1010.8 |
| 20260508100825 | 71 | 262 | 0.0 | 0.0 | 0.00 | 0.00 | 0.00 | 28 | 1010.7 |
| 20260508100739 | 71 | 262 | 0.0 | 0.0 | 0.00 | 0.00 | 0.00 | 28 | 1010.7 |
| 20260508100620 | 71 | 262 | 0.0 | 0.0 | 0.00 | 0.00 | 0.00 | 29 | 1010.8 |
| 20260508100523 | 71 | 262 | 0.0 | 0.0 | 0.00 | 0.00 | 0.00 | 29 | 1010.7 |
| 20260508100425 | 71 | 262 | 0.0 | 0.0 | 0.00 | 0.00 | 0.00 | 29 | 1010.7 |
| 20260508100224 | 71 | 262 | 0.0 | 0.0 | 0.00 | 0.00 | 0.00 | 29 | 1010.7 |
| 20260508100123 | 71 | 262 | 0.0 | 0.0 | 0.00 | 0.00 | 0.00 | 29 | 1010.7 |
| 20260508100044 | 71 | 262 | 0.0 | 0.0 | 0.00 | 0.00 | 0.00 | 29 | 1010.7 |
| 20260508095934 | 71 | 262 | 0.0 | 0.0 | 0.00 | 0.00 | 0.00 | 29 | 1010.7 |
| 20260508095816 | 70 | 262 | 0.0 | 0.0 | 0.00 | 0.00 | 0.00 | 29 | 1010.7 |
| 20260508095717 | 70 | 262 | 0.0 | 0.0 | 0.00 | 0.00 | 0.00 | 29 | 1010.7 |
| 20260508095626 | 70 | 262 | 0.0 | 0.0 | 0.00 | 0.00 | 0.00 | 29 | 1010.6 |
| 20260508095530 | 70 | 262 | 0.0 | 0.0 | 0.00 | 0.00 | 0.00 | 29 | 1010.7 |
| 20260508095439 | 70 | 262 | 0.0 | 0.0 | 0.00 | 0.00 | 0.00 | 29 | 1010.7 |
| 20260508095340 | 70 | 262 | 0.0 | 0.0 | 0.00 | 0.00 | 0.00 | 29 | 1010.7 |
| 20260508095228 | 70 | 262 | 0.0 | 0.0 | 0.00 | 0.00 | 0.00 | 29 | 1010.7 |
| 20260508095129 | 70 | 262 | 0.0 | 0.0 | 0.00 | 0.00 | 0.00 | 30 | 1010.6 |
| 20260508095038 | 70 | 262 | 0.0 | 0.0 | 0.00 | 0.00 | 0.00 | 29 | 1010.6 |
| 20260508094920 | 70 | 262 | 0.0 | 0.0 | 0.00 | 0.00 | 0.00 | 29 | 1010.5 |
| 20260508094826 | 70 | 262 | 0.0 | 0.0 | 0.00 | 0.00 | 0.00 | 29 | 1010.5 |
| 20260508094735 | 70 | 262 | 0.0 | 0.0 | 0.00 | 0.00 | 0.00 | 29 | 1010.5 |
| 20260508094616 | 70 | 262 | 0.0 | 0.0 | 0.00 | 0.00 | 0.00 | 29 | 1010.5 |
| 20260508094519 | 70 | 262 | 0.0 | 0.0 | 0.00 | 0.00 | 0.00 | 29 | 1010.5 |
| 20260508094448 | 70 | 262 | 0.0 | 0.0 | 0.00 | 0.00 | 0.00 | 29 | 1010.5 |
| 20260508094328 | 70 | 262 | 0.0 | 0.0 | 0.00 | 0.00 | 0.00 | 29 | 1010.5 |
| 20260508094238 | 70 | 262 | 0.0 | 0.0 | 0.00 | 0.00 | 0.00 | 29 | 1010.5 |
| 20260508094122 | 70 | 262 | 0.0 | 0.0 | 0.00 | 0.00 | 0.00 | 29 | 1010.5 |
| 20260508094031 | 70 | 262 | 0.0 | 0.0 | 0.00 | 0.00 | 0.00 | 28 | 1010.5 |
| 20260508093932 | 70 | 261 | 0.0 | 0.0 | 0.00 | 0.00 | 0.00 | 28 | 1010.5 |
| 20260508093841 | 70 | 261 | 0.0 | 0.0 | 0.00 | 0.00 | 0.00 | 28 | 1010.5 |
| 20260508093722 | 70 | 262 | 0.0 | 0.0 | 0.00 | 0.00 | 0.00 | 28 | 1010.5 |
| 20260508093624 | 71 | 262 | 0.0 | 0.0 | 0.00 | 0.00 | 0.00 | 29 | 1010.4 |
| 20260508093524 | 71 | 262 | 0.0 | 0.0 | 0.00 | 0.00 | 0.00 | 28 | 1010.5 |
| 20260508093439 | 71 | 262 | 0.0 | 0.0 | 0.00 | 0.00 | 0.00 | 28 | 1010.5 |
| 20260508093319 | 71 | 262 | 0.0 | 0.0 | 0.00 | 0.00 | 0.00 | 28 | 1010.5 |
| 20260508093220 | 71 | 262 | 0.0 | 0.0 | 0.00 | 0.00 | 0.00 | 29 | 1010.5 |
| 20260508093129 | 71 | 262 | 0.0 | 0.0 | 0.00 | 0.00 | 0.00 | 28 | 1010.4 |
| 20260508093030 | 71 | 262 | 0.0 | 0.0 | 0.00 | 0.00 | 0.00 | 28 | 1010.4 |
| 20260508092939 | 71 | 262 | 0.0 | 0.0 | 0.00 | 0.00 | 0.00 | 28 | 1010.4 |
| 20260508092824 | 71 | 262 | 0.0 | 0.0 | 0.00 | 0.00 | 0.00 | 28 | 1010.4 |
| 20260508092726 | 71 | 262 | 0.0 | 0.0 | 0.00 | 0.00 | 0.00 | 28 | 1010.4 |
| 20260508092627 | 71 | 261 | 0.0 | 0.0 | 0.00 | 0.00 | 0.00 | 28 | 1010.4 |
| 20260508092422 | 71 | 262 | 0.0 | 0.0 | 0.00 | 0.00 | 0.00 | 28 | 1010.4 |
| 20260508092324 | 71 | 262 | 0.0 | 0.0 | 0.00 | 0.00 | 0.00 | 28 | 1010.4 |
| 20260508092237 | 71 | 261 | 0.0 | 0.0 | 0.00 | 0.00 | 0.00 | 28 | 1010.4 |
| 20260508092136 | 71 | 262 | 0.0 | 0.0 | 0.00 | 0.00 | 0.00 | 28 | 1010.4 |
| 20260508092017 | 71 | 261 | 0.0 | 0.0 | 0.00 | 0.00 | 0.00 | 28 | 1010.4 |
| 20260508091926 | 71 | 262 | 0.0 | 0.0 | 0.00 | 0.00 | 0.00 | 28 | 1010.4 |
| 20260508091848 | 72 | 262 | 0.0 | 0.0 | 0.00 | 0.00 | 0.00 | 28 | 1010.4 |
| 20260508091735 | 72 | 261 | 0.0 | 0.0 | 0.00 | 0.00 | 0.00 | 28 | 1010.4 |
| 20260508091617 | 72 | 261 | 0.0 | 0.0 | 0.00 | 0.00 | 0.00 | 27 | 1010.3 |
| 20260508091524 | 72 | 262 | 0.0 | 0.0 | 0.00 | 0.00 | 0.00 | 27 | 1010.4 |
| 20260508091425 | 72 | 261 | 0.0 | 0.0 | 0.00 | 0.00 | 0.00 | 27 | 1010.4 |
| 20260508091354 | 72 | 261 | 0.0 | 0.0 | 0.00 | 0.00 | 0.00 | 27 | 1010.3 |
| 20260508091235 | 72 | 262 | 0.0 | 0.0 | 0.00 | 0.00 | 0.00 | 28 | 1010.4 |
| 20260508091116 | 72 | 261 | 0.0 | 0.0 | 0.00 | 0.00 | 0.00 | 27 | 1010.4 |
| 20260508091023 | 72 | 261 | 0.0 | 0.0 | 0.00 | 0.00 | 0.00 | 27 | 1010.4 |
| 20260508090952 | 72 | 262 | 0.0 | 0.0 | 0.00 | 0.00 | 0.00 | 27 | 1010.4 |
| 20260508090817 | 72 | 262 | 0.0 | 0.0 | 0.00 | 0.00 | 0.00 | 27 | 1010.3 |
| 20260508090719 | 72 | 262 | 0.0 | 0.0 | 0.00 | 0.00 | 0.00 | 27 | 1010.2 |
| 20260508090628 | 72 | 261 | 0.0 | 0.0 | 0.00 | 0.00 | 0.00 | 27 | 1010.3 |
| 20260508090549 | 72 | 261 | 0.0 | 0.0 | 0.00 | 0.00 | 0.00 | 27 | 1010.3 |
| 20260508090438 | 72 | 261 | 0.0 | 0.0 | 0.00 | 0.00 | 0.00 | 27 | 1010.3 |
| 20260508090320 | 72 | 261 | 0.0 | 0.0 | 0.00 | 0.00 | 0.00 | 27 | 1010.1 |
| 20260508090227 | 72 | 261 | 0.0 | 0.0 | 0.00 | 0.00 | 0.00 | 26 | 1010.2 |
| 20260508090128 | 72 | 261 | 0.0 | 0.0 | 0.00 | 0.00 | 0.00 | 27 | 1010.2 |
| 20260508090030 | 72 | 261 | 0.0 | 0.0 | 0.00 | 0.00 | 0.00 | 27 | 1010.2 |
| 20260508085919 | 73 | 261 | 0.0 | 0.0 | 0.00 | 0.00 | 0.00 | 26 | 1010.2 |
| 20260508085849 | 73 | 261 | 0.0 | 0.0 | 0.00 | 0.00 | 0.00 | 26 | 1010.2 |
| 20260508085748 | 73 | 261 | 0.0 | 0.0 | 0.00 | 0.00 | 0.00 | 27 | 1010.2 |
| 20260508085637 | 73 | 261 | 0.0 | 0.0 | 0.00 | 0.00 | 0.00 | 27 | 1010.2 |
| 20260508085542 | 73 | 261 | 0.0 | 0.0 | 0.00 | 0.00 | 0.00 | 27 | 1010.2 |
| 20260508085423 | 73 | 261 | 0.0 | 0.0 | 0.00 | 0.00 | 0.00 | 26 | 1010.2 |
| 20260508085352 | 73 | 261 | 0.0 | 0.0 | 0.00 | 0.00 | 0.00 | 26 | 1010.2 |
| 20260508085229 | 73 | 261 | 0.0 | 0.0 | 0.00 | 0.00 | 0.00 | 26 | 1010.2 |
| 20260508085138 | 73 | 261 | 0.0 | 0.0 | 0.00 | 0.00 | 0.00 | 26 | 1010.2 |
| 20260508085019 | 73 | 261 | 0.0 | 0.0 | 0.00 | 0.00 | 0.00 | 26 | 1010.2 |
| 20260508084919 | 73 | 261 | 0.0 | 0.0 | 0.00 | 0.00 | 0.00 | 27 | 1010.3 |
| 20260508084825 | 73 | 261 | 0.0 | 0.0 | 0.00 | 0.00 | 0.00 | 27 | 1010.3 |
| 20260508084740 | 73 | 261 | 0.0 | 0.0 | 0.00 | 0.00 | 0.00 | 27 | 1010.3 |
| 20260508084641 | 73 | 261 | 0.0 | 0.0 | 0.00 | 0.00 | 0.00 | 27 | 1010.2 |
| 20260508084522 | 73 | 261 | 0.0 | 0.0 | 0.00 | 0.00 | 0.00 | 26 | 1010.3 |
| 20260508084424 | 73 | 261 | 0.0 | 0.0 | 0.00 | 0.00 | 0.00 | 27 | 1010.2 |
| 20260508084326 | 73 | 261 | 0.0 | 0.0 | 0.00 | 0.00 | 0.00 | 27 | 1010.3 |
| 20260508084218 | 73 | 261 | 0.0 | 0.0 | 0.00 | 0.00 | 0.00 | 26 | 1010.3 |
| 20260508084121 | 73 | 261 | 0.0 | 0.0 | 0.00 | 0.00 | 0.00 | 26 | 1010.4 |
| 20260508084050 | 74 | 261 | 0.0 | 0.0 | 0.00 | 0.00 | 0.00 | 26 | 1010.3 |
| 20260508083931 | 74 | 261 | 0.0 | 0.0 | 0.00 | 0.00 | 0.00 | 26 | 1010.3 |
| 20260508083833 | 74 | 261 | 0.0 | 0.0 | 0.00 | 0.00 | 0.00 | 25 | 1010.3 |
| 20260508083742 | 74 | 261 | 0.0 | 0.0 | 0.00 | 0.00 | 0.00 | 26 | 1010.3 |
| 20260508083643 | 74 | 261 | 0.0 | 0.0 | 0.00 | 0.00 | 0.00 | 26 | 1010.3 |
| 20260508083530 | 74 | 261 | 0.0 | 0.0 | 0.00 | 0.00 | 0.00 | 25 | 1010.3 |
| 20260508083416 | 74 | 261 | 0.0 | 0.0 | 0.00 | 0.00 | 0.00 | 26 | 1010.4 |
| 20260508083318 | 74 | 261 | 0.0 | 0.0 | 0.00 | 0.00 | 0.00 | 26 | 1010.4 |
| 20260508083221 | 74 | 261 | 0.0 | 0.0 | 0.00 | 0.00 | 0.00 | 25 | 1010.4 |
| 20260508083130 | 74 | 261 | 0.0 | 0.0 | 0.00 | 0.00 | 0.00 | 25 | 1010.4 |
| 20260508083031 | 74 | 261 | 0.0 | 0.0 | 0.00 | 0.00 | 0.00 | 25 | 1010.4 |
| 20260508083002 | 74 | 261 | 0.0 | 0.0 | 0.00 | 0.00 | 0.00 | 26 | 1010.4 |
| 20260508082826 | 74 | 261 | 0.0 | 0.0 | 0.00 | 0.00 | 0.00 | 26 | 1010.4 |
| 20260508082728 | 74 | 261 | 0.0 | 0.0 | 0.00 | 0.00 | 0.00 | 26 | 1010.4 |
| 20260508082637 | 74 | 261 | 0.0 | 0.0 | 0.00 | 0.00 | 0.00 | 26 | 1010.3 |
| 20260508082518 | 74 | 262 | 0.0 | 0.0 | 0.00 | 0.00 | 0.00 | 26 | 1010.4 |
| 20260508082447 | 74 | 262 | 0.0 | 0.0 | 0.00 | 0.00 | 0.00 | 26 | 1010.3 |
| 20260508082327 | 75 | 262 | 0.0 | 0.0 | 0.00 | 0.00 | 0.00 | 26 | 1010.4 |
| 20260508082256 | 75 | 262 | 0.0 | 0.0 | 0.00 | 0.00 | 0.00 | 26 | 1010.3 |
| 20260508082121 | 75 | 262 | 0.0 | 0.0 | 0.00 | 0.00 | 0.00 | 26 | 1010.3 |
| 20260508082023 | 75 | 262 | 0.0 | 0.0 | 0.00 | 0.00 | 0.00 | 26 | 1010.3 |
| 20260508081925 | 75 | 262 | 0.0 | 0.0 | 0.00 | 0.00 | 0.00 | 25 | 1010.2 |
| 20260508081835 | 75 | 262 | 0.0 | 0.0 | 0.00 | 0.00 | 0.00 | 25 | 1010.3 |
| 20260508081735 | 75 | 262 | 0.0 | 0.0 | 0.00 | 0.00 | 0.00 | 25 | 1010.3 |
| 20260508081621 | 75 | 262 | 0.0 | 0.0 | 0.00 | 0.00 | 0.00 | 25 | 1010.4 |
| 20260508081524 | 75 | 262 | 0.0 | 0.0 | 0.00 | 0.00 | 0.00 | 25 | 1010.4 |
| 20260508081456 | 75 | 262 | 0.0 | 0.0 | 0.00 | 0.00 | 0.00 | 25 | 1010.4 |
| 20260508081316 | 75 | 262 | 0.0 | 0.0 | 0.00 | 0.00 | 0.00 | 25 | 1010.4 |
| 20260508081218 | 75 | 262 | 0.0 | 0.0 | 0.00 | 0.00 | 0.00 | 25 | 1010.4 |
| 20260508081147 | 75 | 262 | 0.0 | 0.0 | 0.00 | 0.00 | 0.00 | 26 | 1010.4 |
| 20260508081054 | 75 | 262 | 0.0 | 0.0 | 0.00 | 0.00 | 0.00 | 26 | 1010.3 |
| 20260508080954 | 75 | 262 | 0.0 | 0.0 | 0.00 | 0.00 | 0.00 | 26 | 1010.2 |
| 20260508080815 | 75 | 262 | 0.0 | 0.0 | 0.00 | 0.00 | 0.00 | 25 | 1010.3 |
| 20260508080728 | 75 | 262 | 0.0 | 0.0 | 0.00 | 0.00 | 0.00 | 25 | 1010.3 |
| 20260508080658 | 75 | 262 | 0.0 | 0.0 | 0.00 | 0.00 | 0.00 | 25 | 1010.3 |
| 20260508080518 | 75 | 262 | 0.0 | 0.0 | 0.00 | 0.00 | 0.00 | 25 | 1010.3 |
| 20260508080418 | 75 | 262 | 0.0 | 0.0 | 0.00 | 0.00 | 0.00 | 25 | 1010.3 |
| 20260508080346 | 75 | 262 | 0.0 | 0.0 | 0.00 | 0.00 | 0.00 | 25 | 1010.3 |
| 20260508080227 | 75 | 262 | 0.0 | 0.0 | 0.00 | 0.00 | 0.00 | 24 | 1010.3 |
| 20260508080128 | 75 | 262 | 0.0 | 0.0 | 0.00 | 0.00 | 0.00 | 24 | 1010.3 |
| 20260508080054 | 75 | 262 | 0.0 | 0.0 | 0.00 | 0.00 | 0.00 | 24 | 1010.3 |
| 20260508075942 | 75 | 262 | 0.0 | 0.0 | 0.00 | 0.00 | 0.00 | 24 | 1010.3 |
| 20260508075830 | 75 | 262 | 0.0 | 0.0 | 0.00 | 0.00 | 0.00 | 24 | 1010.4 |
| 20260508075752 | 75 | 262 | 0.0 | 0.0 | 0.00 | 0.00 | 0.00 | 24 | 1010.3 |
| 20260508075641 | 75 | 262 | 0.0 | 0.0 | 0.00 | 0.00 | 0.00 | 23 | 1010.3 |
| 20260508075523 | 76 | 262 | 0.0 | 0.0 | 0.00 | 0.00 | 0.00 | 23 | 1010.3 |
| 20260508075425 | 76 | 262 | 0.0 | 0.0 | 0.00 | 0.00 | 0.00 | 23 | 1010.3 |
| 20260508075358 | 76 | 262 | 0.0 | 0.0 | 0.00 | 0.00 | 0.00 | 23 | 1010.3 |
| 20260508075218 | 76 | 262 | 0.0 | 0.0 | 0.00 | 0.00 | 0.00 | 22 | 1010.2 |
| 20260508075120 | 76 | 262 | 0.0 | 0.0 | 0.00 | 0.00 | 0.00 | 22 | 1010.3 |
| 20260508075022 | 76 | 262 | 0.0 | 0.0 | 0.00 | 0.00 | 0.00 | 22 | 1010.2 |
| 20260508074931 | 76 | 262 | 0.0 | 0.0 | 0.00 | 0.00 | 0.00 | 22 | 1010.2 |
| 20260508074854 | 76 | 262 | 0.0 | 0.0 | 0.00 | 0.00 | 0.00 | 22 | 1010.2 |
| 20260508074740 | 76 | 262 | 0.0 | 0.0 | 0.00 | 0.00 | 0.00 | 22 | 1010.2 |
| 20260508074625 | 76 | 262 | 0.0 | 0.0 | 0.00 | 0.00 | 0.00 | 22 | 1010.2 |
| 20260508074526 | 76 | 262 | 0.0 | 0.0 | 0.00 | 0.00 | 0.00 | 22 | 1010.2 |
| 20260508074434 | 77 | 262 | 0.0 | 0.0 | 0.00 | 0.00 | 0.00 | 22 | 1010.3 |
| 20260508074316 | 77 | 262 | 0.0 | 0.0 | 0.00 | 0.00 | 0.00 | 22 | 1010.3 |
| 20260508074218 | 77 | 262 | 0.0 | 0.0 | 0.00 | 0.00 | 0.00 | 22 | 1010.2 |
| 20260508074120 | 77 | 262 | 0.0 | 0.0 | 0.00 | 0.00 | 0.00 | 22 | 1010.2 |
| 20260508074033 | 77 | 262 | 0.0 | 0.0 | 0.00 | 0.00 | 0.00 | 22 | 1010.2 |
| 20260508074003 | 77 | 262 | 0.0 | 0.0 | 0.00 | 0.00 | 0.00 | 22 | 1010.2 |
| 20260508073824 | 78 | 262 | 0.0 | 0.0 | 0.00 | 0.00 | 0.00 | 21 | 1010.2 |
| 20260508073727 | 78 | 262 | 0.0 | 0.0 | 0.00 | 0.00 | 0.00 | 21 | 1010.1 |
| 20260508073627 | 78 | 262 | 0.0 | 0.0 | 0.00 | 0.00 | 0.00 | 21 | 1010.1 |
| 20260508073537 | 78 | 262 | 0.0 | 0.0 | 0.00 | 0.00 | 0.00 | 21 | 1010.1 |
| 20260508073422 | 78 | 262 | 0.0 | 0.0 | 0.00 | 0.00 | 0.00 | 21 | 1010.1 |
| 20260508073324 | 78 | 262 | 0.0 | 0.0 | 0.00 | 0.00 | 0.00 | 21 | 1010.1 |
| 20260508073254 | 78 | 262 | 0.0 | 0.0 | 0.00 | 0.00 | 0.00 | 21 | 1010.1 |
| 20260508073115 | 79 | 262 | 0.0 | 0.0 | 0.00 | 0.00 | 0.00 | 21 | 1010.1 |
| 20260508073033 | 79 | 262 | 0.0 | 0.0 | 0.00 | 0.00 | 0.00 | 21 | 1010.0 |
| 20260508072936 | 79 | 262 | 0.0 | 0.0 | 0.00 | 0.00 | 0.00 | 21 | 1010.0 |
| 20260508072817 | 79 | 262 | 0.0 | 0.0 | 0.00 | 0.00 | 0.00 | 21 | 1010.0 |
| 20260508072750 | 79 | 262 | 0.0 | 0.0 | 0.00 | 0.00 | 0.00 | 21 | 1010.0 |
| 20260508072629 | 79 | 262 | 0.0 | 0.0 | 0.00 | 0.00 | 0.00 | 21 | 1010.1 |
| 20260508072539 | 79 | 262 | 0.0 | 0.0 | 0.00 | 0.00 | 0.00 | 21 | 1010.1 |
| 20260508072420 | 79 | 262 | 0.0 | 0.0 | 0.00 | 0.00 | 0.00 | 21 | 1010.0 |
| 20260508072320 | 79 | 262 | 0.0 | 0.0 | 0.00 | 0.00 | 0.00 | 21 | 1010.0 |
| 20260508072222 | 79 | 262 | 0.0 | 0.0 | 0.00 | 0.00 | 0.00 | 21 | 1010.0 |
| 20260508072135 | 79 | 262 | 0.0 | 0.0 | 0.00 | 0.00 | 0.00 | 21 | 1010.0 |
| 20260508072036 | 79 | 262 | 0.0 | 0.0 | 0.00 | 0.00 | 0.00 | 21 | 1010.1 |
| 20260508071943 | 79 | 262 | 0.0 | 0.0 | 0.00 | 0.00 | 0.00 | 21 | 1010.1 |
| 20260508071823 | 79 | 262 | 0.0 | 0.0 | 0.00 | 0.00 | 0.00 | 21 | 1010.0 |
| 20260508071754 | 79 | 262 | 0.0 | 0.0 | 0.00 | 0.00 | 0.00 | 21 | 1010.0 |
| 20260508071717 | 79 | 262 | 0.0 | 0.0 | 0.00 | 0.00 | 0.00 | 21 | 1010.0 |
| 20260508071516 | 79 | 262 | 0.0 | 0.0 | 0.00 | 0.00 | 0.00 | 21 | 1010.0 |
| 20260508071426 | 79 | 262 | 0.0 | 0.0 | 0.00 | 0.00 | 0.00 | 21 | 1010.0 |
| 20260508071332 | 79 | 262 | 0.0 | 0.0 | 0.00 | 0.00 | 0.00 | 21 | 1009.9 |
| 20260508071234 | 79 | 262 | 0.0 | 0.0 | 0.00 | 0.00 | 0.00 | 21 | 1009.9 |
| 20260508071116 | 79 | 262 | 0.0 | 0.0 | 0.00 | 0.00 | 0.00 | 21 | 1009.9 |
| 20260508071044 | 79 | 262 | 0.0 | 0.0 | 0.00 | 0.00 | 0.00 | 21 | 1010.0 |
| 20260508070952 | 79 | 262 | 0.0 | 0.0 | 0.00 | 0.00 | 0.00 | 20 | 1010.0 |
| 20260508070834 | 79 | 262 | 0.0 | 0.0 | 0.00 | 0.00 | 0.00 | 20 | 1009.9 |
| 20260508070719 | 80 | 262 | 0.0 | 0.0 | 0.00 | 0.00 | 0.00 | 20 | 1009.9 |
| 20260508070629 | 79 | 262 | 0.0 | 0.0 | 0.00 | 0.00 | 0.00 | 20 | 1009.9 |
| 20260508070530 | 80 | 262 | 0.0 | 0.0 | 0.00 | 0.00 | 0.00 | 20 | 1009.9 |
| 20260508070432 | 80 | 262 | 0.0 | 0.0 | 0.00 | 0.00 | 0.00 | 20 | 1010.0 |
| 20260508070342 | 80 | 262 | 0.0 | 0.0 | 0.00 | 0.00 | 0.00 | 20 | 1010.0 |
| 20260508070224 | 80 | 262 | 0.0 | 0.0 | 0.00 | 0.00 | 0.00 | 20 | 1009.9 |
| 20260508070130 | 80 | 262 | 0.0 | 0.0 | 0.00 | 0.00 | 0.00 | 20 | 1009.9 |
| 20260508070050 | 80 | 262 | 0.0 | 0.0 | 0.00 | 0.00 | 0.00 | 20 | 1010.0 |
| 20260508065919 | 79 | 262 | 0.0 | 0.0 | 0.00 | 0.00 | 0.00 | 20 | 1009.9 |
| 20260508065849 | 79 | 262 | 0.0 | 0.0 | 0.00 | 0.00 | 0.00 | 20 | 1009.9 |
| 20260508065749 | 79 | 262 | 0.0 | 0.0 | 0.00 | 0.00 | 0.00 | 20 | 1010.0 |
| 20260508065616 | 79 | 262 | 0.0 | 0.0 | 0.00 | 0.00 | 0.00 | 20 | 1010.0 |
| 20260508065538 | 79 | 262 | 0.0 | 0.0 | 0.00 | 0.00 | 0.00 | 20 | 1009.9 |
| 20260508065446 | 79 | 262 | 0.0 | 0.0 | 0.00 | 0.00 | 0.00 | 20 | 1010.0 |
| 20260508065327 | 79 | 262 | 0.0 | 0.0 | 0.00 | 0.00 | 0.00 | 20 | 1010.0 |
| 20260508065239 | 79 | 262 | 0.0 | 0.0 | 0.00 | 0.00 | 0.00 | 20 | 1010.0 |
| 20260508065141 | 79 | 262 | 0.0 | 0.0 | 0.00 | 0.00 | 0.00 | 20 | 1009.9 |
| 20260508065030 | 79 | 262 | 0.0 | 0.0 | 0.00 | 0.00 | 0.00 | 20 | 1009.9 |
| 20260508064932 | 79 | 262 | 0.0 | 0.0 | 0.00 | 0.00 | 0.00 | 20 | 1009.9 |
| 20260508064841 | 79 | 262 | 0.0 | 0.0 | 0.00 | 0.00 | 0.00 | 20 | 1009.9 |
| 20260508064722 | 79 | 262 | 0.0 | 0.0 | 0.00 | 0.00 | 0.00 | 20 | 1009.9 |
| 20260508064651 | 79 | 262 | 0.0 | 0.0 | 0.00 | 0.00 | 0.00 | 20 | 1009.9 |
| 20260508064535 | 78 | 262 | 0.0 | 0.0 | 0.00 | 0.00 | 0.00 | 20 | 1009.9 |
| 20260508064417 | 78 | 262 | 0.0 | 0.0 | 0.00 | 0.00 | 0.00 | 20 | 1009.9 |
| 20260508064320 | 78 | 262 | 0.0 | 0.0 | 0.00 | 0.00 | 0.00 | 20 | 1010.0 |
| 20260508064249 | 78 | 262 | 0.0 | 0.0 | 0.00 | 0.00 | 0.00 | 20 | 1010.0 |
| 20260508064156 | 78 | 262 | 0.0 | 0.0 | 0.00 | 0.00 | 0.00 | 20 | 1010.0 |
| 20260508064018 | 78 | 262 | 0.0 | 0.0 | 0.00 | 0.00 | 0.00 | 20 | 1010.1 |
| 20260508063939 | 78 | 262 | 0.0 | 0.0 | 0.00 | 0.00 | 0.00 | 20 | 1010.1 |
| 20260508063830 | 78 | 262 | 0.0 | 0.0 | 0.00 | 0.00 | 0.00 | 20 | 1010.0 |
| 20260508063732 | 78 | 262 | 0.0 | 0.0 | 0.00 | 0.00 | 0.00 | 20 | 1010.1 |
| 20260508063615 | 78 | 262 | 0.0 | 0.0 | 0.00 | 0.00 | 0.00 | 20 | 1010.1 |
| 20260508063522 | 78 | 262 | 0.0 | 0.0 | 0.00 | 0.00 | 0.00 | 20 | 1010.1 |
| 20260508063424 | 78 | 262 | 0.0 | 0.0 | 0.00 | 0.00 | 0.00 | 20 | 1010.1 |
| 20260508063333 | 78 | 262 | 0.0 | 0.0 | 0.00 | 0.00 | 0.00 | 20 | 1010.1 |
| 20260508063220 | 78 | 262 | 0.0 | 0.0 | 0.00 | 0.00 | 0.00 | 20 | 1010.1 |
| 20260508063141 | 78 | 262 | 0.0 | 0.0 | 0.00 | 0.00 | 0.00 | 20 | 1010.1 |
| 20260508063030 | 78 | 262 | 0.0 | 0.0 | 0.00 | 0.00 | 0.00 | 20 | 1010.0 |
| 20260508062931 | 78 | 262 | 0.0 | 0.0 | 0.00 | 0.00 | 0.00 | 20 | 1010.1 |
| 20260508062830 | 79 | 262 | 0.0 | 0.0 | 0.00 | 0.00 | 0.00 | 20 | 1010.0 |
| 20260508062741 | 79 | 262 | 0.0 | 0.0 | 0.00 | 0.00 | 0.00 | 20 | 1010.0 |
| 20260508062622 | 79 | 262 | 0.0 | 0.0 | 0.00 | 0.00 | 0.00 | 20 | 1010.0 |
| 20260508062528 | 79 | 262 | 0.0 | 0.0 | 0.00 | 0.00 | 0.00 | 19 | 1010.0 |
| 20260508062430 | 79 | 262 | 0.0 | 0.0 | 0.00 | 0.00 | 0.00 | 20 | 1010.0 |
| 20260508062339 | 79 | 262 | 0.0 | 1.0 | 0.00 | 0.00 | 0.00 | 19 | 1010.0 |
| 20260508062221 | 79 | 262 | 0.0 | 1.0 | 0.00 | 0.00 | 0.00 | 19 | 1010.0 |
| 20260508062122 | 79 | 262 | 0.0 | 1.0 | 0.00 | 0.00 | 0.00 | 19 | 1010.0 |
| 20260508062030 | 79 | 262 | 0.0 | 1.0 | 0.00 | 0.00 | 0.00 | 19 | 1010.0 |
| 20260508061915 | 79 | 262 | 0.0 | 1.0 | 0.00 | 0.00 | 0.00 | 19 | 1010.0 |
| 20260508061823 | 79 | 262 | 0.0 | 1.0 | 0.00 | 0.00 | 0.00 | 19 | 1010.1 |
| 20260508061725 | 79 | 262 | 0.0 | 1.0 | 0.00 | 0.00 | 0.00 | 19 | 1010.0 |
| 20260508061628 | 79 | 262 | 0.0 | 1.0 | 0.00 | 0.00 | 0.00 | 19 | 1010.0 |
| 20260508061537 | 79 | 262 | 0.0 | 1.0 | 0.00 | 0.00 | 0.00 | 19 | 1010.0 |
| 20260508061419 | 79 | 262 | 0.0 | 0.0 | 0.00 | 0.00 | 0.00 | 19 | 1010.0 |
| 20260508061326 | 79 | 262 | 0.0 | 0.0 | 0.00 | 0.00 | 0.00 | 19 | 1010.0 |
| 20260508061255 | 79 | 262 | 0.0 | 0.0 | 0.00 | 0.00 | 0.00 | 19 | 1010.0 |
| 20260508061157 | 79 | 262 | 0.0 | 0.0 | 0.00 | 0.00 | 0.00 | 19 | 1010.0 |
| 20260508061017 | 79 | 262 | 0.0 | 0.0 | 0.00 | 0.00 | 0.00 | 19 | 1010.1 |
| 20260508060926 | 79 | 262 | 0.0 | 0.0 | 0.00 | 0.00 | 0.00 | 19 | 1010.2 |
| 20260508060848 | 79 | 262 | 0.0 | 0.0 | 0.00 | 0.00 | 0.00 | 19 | 1010.1 |
| 20260508060755 | 79 | 261 | 0.0 | 0.0 | 0.00 | 0.00 | 0.00 | 19 | 1010.1 |
| 20260508060644 | 79 | 261 | 0.0 | 0.0 | 0.00 | 0.00 | 0.00 | 19 | 1010.1 |
| 20260508060522 | 79 | 261 | 0.0 | 0.0 | 0.00 | 0.00 | 0.00 | 19 | 1010.1 |
| 20260508060435 | 79 | 261 | 0.0 | 0.0 | 0.00 | 0.00 | 0.00 | 19 | 1010.0 |
| 20260508060317 | 79 | 261 | 0.0 | 0.0 | 0.00 | 0.00 | 0.00 | 19 | 1010.1 |
| 20260508060218 | 79 | 261 | 0.0 | 0.0 | 0.00 | 0.00 | 0.00 | 19 | 1010.0 |
| 20260508060125 | 79 | 261 | 0.0 | 0.0 | 0.00 | 0.00 | 0.00 | 19 | 1010.1 |
| 20260508060040 | 79 | 261 | 0.0 | 0.0 | 0.00 | 0.00 | 0.00 | 19 | 1010.1 |
| 20260508055956 | 79 | 261 | 0.0 | 0.0 | 0.00 | 0.00 | 0.00 | 19 | 1010.0 |
| 20260508055821 | 79 | 261 | 0.0 | 0.0 | 0.00 | 0.00 | 0.00 | 19 | 1010.1 |
| 20260508055750 | 79 | 261 | 0.0 | 0.0 | 0.00 | 0.00 | 0.00 | 19 | 1010.0 |
| 20260508055631 | 79 | 261 | 0.0 | 0.0 | 0.00 | 0.00 | 0.00 | 19 | 1010.0 |
| 20260508055533 | 79 | 261 | 0.0 | 0.0 | 0.00 | 0.00 | 0.00 | 19 | 1010.1 |
| 20260508055421 | 79 | 261 | 0.0 | 0.0 | 0.00 | 0.00 | 0.00 | 19 | 1010.1 |
| 20260508055323 | 79 | 261 | 0.0 | 0.0 | 0.00 | 0.00 | 0.00 | 19 | 1010.0 |
| 20260508055225 | 79 | 261 | 0.0 | 0.0 | 0.00 | 0.00 | 0.00 | 19 | 1010.1 |
| 20260508055152 | 79 | 261 | 0.0 | 0.0 | 0.00 | 0.00 | 0.00 | 19 | 1010.0 |
| 20260508055017 | 79 | 261 | 0.0 | 0.0 | 0.00 | 0.00 | 0.00 | 19 | 1010.1 |
| 20260508054927 | 79 | 261 | 0.0 | 0.0 | 0.00 | 0.00 | 0.00 | 19 | 1010.1 |
| 20260508054827 | 79 | 261 | 0.0 | 0.0 | 0.00 | 0.00 | 0.00 | 19 | 1010.2 |
| 20260508054730 | 79 | 261 | 0.0 | 0.0 | 0.00 | 0.00 | 0.00 | 19 | 1010.2 |
| 20260508054639 | 80 | 261 | 0.0 | 0.0 | 0.00 | 0.00 | 0.00 | 19 | 1010.2 |
| 20260508054525 | 80 | 261 | 0.0 | 0.0 | 0.00 | 0.00 | 0.00 | 19 | 1010.2 |
| 20260508054425 | 80 | 261 | 0.0 | 0.0 | 0.00 | 0.00 | 0.00 | 19 | 1010.2 |
| 20260508054334 | 80 | 261 | 0.0 | 0.0 | 0.00 | 0.00 | 0.00 | 19 | 1010.2 |
| 20260508054217 | 80 | 261 | 0.0 | 0.0 | 0.00 | 0.00 | 0.00 | 19 | 1010.2 |
| 20260508054118 | 80 | 261 | 0.0 | 0.0 | 0.00 | 0.00 | 0.00 | 18 | 1010.2 |
| 20260508054021 | 80 | 261 | 0.0 | 0.0 | 0.00 | 0.00 | 0.00 | 19 | 1010.1 |
| 20260508053929 | 80 | 261 | 0.0 | 0.0 | 0.00 | 0.00 | 0.00 | 18 | 1010.1 |
| 20260508053858 | 80 | 261 | 0.0 | 0.0 | 0.00 | 0.00 | 0.00 | 18 | 1010.2 |
| 20260508053723 | 80 | 261 | 0.0 | 0.0 | 0.00 | 0.00 | 0.00 | 18 | 1010.2 |
| 20260508053625 | 80 | 262 | 0.0 | 0.0 | 0.00 | 0.00 | 0.00 | 18 | 1010.1 |
| 20260508053528 | 81 | 262 | 0.0 | 0.0 | 0.00 | 0.00 | 0.00 | 18 | 1010.1 |
| 20260508053437 | 81 | 262 | 0.0 | 0.0 | 0.00 | 0.00 | 0.00 | 18 | 1010.2 |
| 20260508053318 | 81 | 262 | 0.0 | 0.0 | 0.00 | 0.00 | 0.00 | 17 | 1010.1 |
| 20260508053223 | 81 | 262 | 0.0 | 0.0 | 0.00 | 0.00 | 0.00 | 17 | 1010.1 |
| 20260508053133 | 81 | 262 | 0.0 | 0.0 | 0.00 | 0.00 | 0.00 | 17 | 1010.2 |
| 20260508053034 | 81 | 262 | 0.0 | 0.0 | 0.00 | 0.00 | 0.00 | 17 | 1010.2 |
| 20260508052917 | 81 | 262 | 0.0 | 0.0 | 0.00 | 0.00 | 0.00 | 17 | 1010.2 |
| 20260508052819 | 81 | 262 | 0.0 | 0.0 | 0.00 | 0.00 | 0.00 | 17 | 1010.3 |
| 20260508052725 | 81 | 262 | 0.0 | 0.0 | 0.00 | 0.00 | 0.00 | 17 | 1010.2 |
| 20260508052627 | 81 | 262 | 0.0 | 0.0 | 0.00 | 0.00 | 0.00 | 17 | 1010.2 |
| 20260508052539 | 82 | 262 | 0.0 | 0.0 | 0.00 | 0.00 | 0.00 | 17 | 1010.1 |
| 20260508052419 | 82 | 262 | 0.0 | 0.0 | 0.00 | 0.00 | 0.00 | 17 | 1010.2 |
| 20260508052327 | 82 | 262 | 0.0 | 0.0 | 0.00 | 0.00 | 0.00 | 16 | 1010.2 |
| 20260508052248 | 82 | 262 | 0.0 | 1.0 | 0.00 | 0.00 | 0.00 | 16 | 1010.1 |
| 20260508052136 | 82 | 262 | 0.0 | 1.0 | 0.00 | 0.00 | 0.00 | 16 | 1010.1 |
| 20260508052019 | 82 | 262 | 0.0 | 1.0 | 0.00 | 0.00 | 0.00 | 16 | 1010.1 |
| 20260508051920 | 82 | 262 | 0.0 | 1.0 | 0.00 | 0.00 | 0.00 | 16 | 1010.1 |
| 20260508051835 | 82 | 262 | 0.0 | 1.0 | 0.00 | 0.00 | 0.00 | 16 | 1010.2 |
| 20260508051733 | 82 | 262 | 0.0 | 1.0 | 0.00 | 0.00 | 0.00 | 16 | 1010.1 |
| 20260508051635 | 82 | 262 | 0.0 | 1.0 | 0.00 | 0.00 | 0.00 | 16 | 1010.1 |
| 20260508051516 | 82 | 262 | 0.0 | 1.0 | 0.00 | 0.00 | 0.00 | 16 | 1010.2 |
| 20260508051425 | 82 | 262 | 0.0 | 0.0 | 0.00 | 0.00 | 0.00 | 16 | 1010.0 |
| 20260508051327 | 82 | 262 | 0.0 | 0.0 | 0.00 | 0.00 | 0.00 | 16 | 1010.0 |
| 20260508051233 | 82 | 262 | 0.0 | 0.0 | 0.00 | 0.00 | 0.00 | 16 | 1010.1 |
| 20260508051120 | 83 | 262 | 0.0 | 0.0 | 0.00 | 0.00 | 0.00 | 16 | 1010.0 |
| 20260508051042 | 83 | 262 | 0.0 | 0.0 | 0.00 | 0.00 | 0.00 | 16 | 1010.0 |
| 20260508050929 | 83 | 262 | 0.0 | 0.0 | 0.00 | 0.00 | 0.00 | 16 | 1010.1 |
| 20260508050832 | 83 | 262 | 0.0 | 0.0 | 0.00 | 0.00 | 0.00 | 16 | 1010.1 |
| 20260508050724 | 83 | 262 | 0.0 | 0.0 | 0.00 | 0.00 | 0.00 | 16 | 1010.1 |
| 20260508050653 | 83 | 262 | 0.0 | 0.0 | 0.00 | 0.00 | 0.00 | 16 | 1010.1 |
| 20260508050519 | 83 | 262 | 0.0 | 0.0 | 0.00 | 0.00 | 0.00 | 16 | 1010.1 |
| 20260508050428 | 83 | 262 | 0.0 | 0.0 | 0.00 | 0.00 | 0.00 | 16 | 1010.1 |
| 20260508050330 | 83 | 262 | 0.0 | 0.0 | 0.00 | 0.00 | 0.00 | 16 | 1010.1 |
| 20260508050232 | 83 | 262 | 0.0 | 0.0 | 0.00 | 0.00 | 0.00 | 16 | 1010.1 |
| 20260508050139 | 83 | 262 | 0.0 | 0.0 | 0.00 | 0.00 | 0.00 | 16 | 1010.1 |
| 20260508050058 | 83 | 262 | 0.0 | 0.0 | 0.00 | 0.00 | 0.00 | 16 | 1010.1 |
| 20260508045926 | 83 | 262 | 0.0 | 0.0 | 0.00 | 0.00 | 0.00 | 16 | 1010.1 |
| 20260508045839 | 83 | 262 | 0.0 | 0.0 | 0.00 | 0.00 | 0.00 | 16 | 1010.1 |
| 20260508045721 | 83 | 262 | 0.0 | 0.0 | 0.00 | 0.00 | 0.00 | 16 | 1010.1 |
| 20260508045622 | 83 | 262 | 0.0 | 0.0 | 0.00 | 0.00 | 0.00 | 16 | 1010.1 |
| 20260508045524 | 83 | 262 | 0.0 | 0.0 | 0.00 | 0.00 | 0.00 | 16 | 1010.1 |
| 20260508045433 | 83 | 262 | 0.0 | 0.0 | 0.00 | 0.00 | 0.00 | 16 | 1010.0 |
| 20260508045315 | 83 | 262 | 0.0 | 0.0 | 0.00 | 0.00 | 0.00 | 15 | 1010.1 |
| 20260508045222 | 83 | 262 | 0.0 | 0.0 | 0.00 | 0.00 | 0.00 | 15 | 1010.1 |
| 20260508045123 | 83 | 262 | 0.0 | 0.0 | 0.00 | 0.00 | 0.00 | 15 | 1010.1 |
| 20260508045030 | 84 | 262 | 0.0 | 0.0 | 0.00 | 0.00 | 0.00 | 15 | 1010.1 |
| 20260508044932 | 84 | 262 | 0.0 | 0.0 | 0.00 | 0.00 | 0.00 | 15 | 1010.1 |
| 20260508044819 | 84 | 262 | 0.0 | 0.0 | 0.00 | 0.00 | 0.00 | 15 | 1010.0 |
| 20260508044722 | 84 | 262 | 0.0 | 0.0 | 0.00 | 0.00 | 0.00 | 15 | 1010.1 |
| 20260508044631 | 84 | 262 | 0.0 | 0.0 | 0.00 | 0.00 | 0.00 | 15 | 1010.1 |
| 20260508044517 | 84 | 262 | 0.0 | 0.0 | 0.00 | 0.00 | 0.00 | 15 | 1010.0 |
| 20260508044446 | 84 | 262 | 0.0 | 0.0 | 0.00 | 0.00 | 0.00 | 15 | 1010.0 |
| 20260508044328 | 84 | 262 | 0.0 | 0.0 | 0.00 | 0.00 | 0.00 | 15 | 1010.0 |
| 20260508044256 | 84 | 262 | 0.0 | 0.0 | 0.00 | 0.00 | 0.00 | 15 | 1010.0 |
| 20260508044118 | 84 | 262 | 0.0 | 0.0 | 0.00 | 0.00 | 0.00 | 15 | 1010.0 |
| 20260508044020 | 84 | 262 | 0.0 | 0.0 | 0.00 | 0.00 | 0.00 | 14 | 1010.0 |
| 20260508043922 | 85 | 262 | 0.0 | 0.0 | 0.00 | 0.00 | 0.00 | 14 | 1009.9 |
| 20260508043836 | 85 | 262 | 0.0 | 0.0 | 0.00 | 0.00 | 0.00 | 14 | 1010.0 |
| 20260508043717 | 85 | 262 | 0.0 | 0.0 | 0.00 | 0.00 | 0.00 | 14 | 1009.9 |
| 20260508043620 | 85 | 262 | 0.0 | 0.0 | 0.00 | 0.00 | 0.00 | 14 | 1009.9 |
| 20260508043529 | 85 | 262 | 0.0 | 0.0 | 0.00 | 0.00 | 0.00 | 14 | 1009.9 |
| 20260508043432 | 85 | 262 | 0.0 | 0.0 | 0.00 | 0.00 | 0.00 | 14 | 1009.8 |
| 20260508043317 | 85 | 262 | 0.0 | 0.0 | 0.00 | 0.00 | 0.00 | 14 | 1009.8 |
| 20260508043225 | 85 | 262 | 0.0 | 0.0 | 0.00 | 0.00 | 0.00 | 14 | 1009.8 |
| 20260508043126 | 85 | 262 | 0.0 | 0.0 | 0.00 | 0.00 | 0.00 | 14 | 1009.7 |
| 20260508043033 | 85 | 262 | 0.0 | 0.0 | 0.00 | 0.00 | 0.00 | 14 | 1009.7 |
| 20260508042934 | 85 | 262 | 0.0 | 0.0 | 0.00 | 0.00 | 0.00 | 14 | 1009.8 |
| 20260508042816 | 85 | 262 | 0.0 | 0.0 | 0.00 | 0.00 | 0.00 | 14 | 1009.8 |
| 20260508042725 | 85 | 262 | 0.0 | 0.0 | 0.00 | 0.00 | 0.00 | 14 | 1009.8 |
| 20260508042627 | 85 | 262 | 0.0 | 0.0 | 0.00 | 0.00 | 0.00 | 14 | 1009.8 |
| 20260508042519 | 85 | 262 | 0.0 | 0.0 | 0.00 | 0.00 | 0.00 | 14 | 1009.8 |
| 20260508042420 | 85 | 262 | 0.0 | 0.0 | 0.00 | 0.00 | 0.00 | 14 | 1009.8 |
| 20260508042328 | 85 | 262 | 0.0 | 0.0 | 0.00 | 0.00 | 0.00 | 14 | 1009.8 |
| 20260508042230 | 85 | 262 | 0.0 | 0.0 | 0.00 | 0.00 | 0.00 | 14 | 1009.9 |
| 20260508042139 | 85 | 262 | 0.0 | 0.0 | 0.00 | 0.00 | 0.00 | 14 | 1009.9 |
| 20260508042040 | 85 | 262 | 0.0 | 0.0 | 0.00 | 0.00 | 0.00 | 13 | 1009.8 |
| 20260508041948 | 85 | 262 | 0.0 | 0.0 | 0.00 | 0.00 | 0.00 | 13 | 1009.8 |
| 20260508041827 | 85 | 262 | 0.0 | 0.0 | 0.00 | 0.00 | 0.00 | 13 | 1009.6 |
| 20260508041741 | 85 | 262 | 0.0 | 0.0 | 0.00 | 0.00 | 0.00 | 13 | 1009.6 |
| 20260508041624 | 85 | 262 | 0.0 | 0.0 | 0.00 | 0.00 | 0.00 | 13 | 1009.7 |
| 20260508041525 | 85 | 262 | 0.0 | 2.0 | 0.00 | 0.00 | 0.00 | 13 | 1009.6 |
| 20260508041435 | 85 | 262 | 0.0 | 2.0 | 0.00 | 0.00 | 0.00 | 13 | 1009.6 |
| 20260508041317 | 85 | 265 | 0.0 | 2.0 | 0.00 | 0.00 | 0.00 | 13 | 1009.6 |
| 20260508041219 | 85 | 265 | 0.0 | 2.0 | 0.00 | 0.00 | 0.00 | 13 | 1009.6 |
| 20260508041152 | 85 | 265 | 0.0 | 2.0 | 0.00 | 0.00 | 0.00 | 13 | 1009.6 |
| 20260508041033 | 85 | 265 | 0.0 | 2.0 | 0.00 | 0.00 | 0.00 | 13 | 1009.6 |
| 20260508041003 | 85 | 265 | 0.0 | 5.0 | 0.00 | 0.00 | 0.00 | 13 | 1009.6 |
| 20260508040824 | 85 | 265 | 0.0 | 5.0 | 0.00 | 0.00 | 0.00 | 13 | 1009.5 |
| 20260508040724 | 85 | 265 | 0.0 | 5.0 | 0.00 | 0.00 | 0.00 | 13 | 1009.6 |
| 20260508040633 | 85 | 266 | 0.0 | 5.0 | 0.00 | 0.00 | 0.00 | 13 | 1009.6 |
| 20260508040516 | 85 | 266 | 0.0 | 5.0 | 0.00 | 0.00 | 0.00 | 13 | 1009.5 |
| 20260508040421 | 85 | 266 | 0.0 | 5.0 | 0.00 | 0.00 | 0.00 | 13 | 1009.5 |
| 20260508040323 | 85 | 269 | 0.0 | 5.0 | 0.00 | 0.00 | 0.00 | 13 | 1009.5 |
| 20260508040232 | 85 | 269 | 1.0 | 5.0 | 0.00 | 0.00 | 0.00 | 13 | 1009.4 |
| 20260508040134 | 85 | 269 | 1.0 | 5.0 | 0.00 | 0.00 | 0.00 | 13 | 1009.5 |
| 20260508040054 | 85 | 270 | 0.0 | 5.0 | 0.00 | 0.00 | 0.00 | 13 | 1009.5 |
| 20260508035923 | 84 | 276 | 1.0 | 5.0 | 0.00 | 0.00 | 0.00 | 14 | 1009.5 |
| 20260508035836 | 84 | 276 | 2.0 | 5.0 | 0.00 | 0.00 | 0.00 | 14 | 1009.5 |
| 20260508035718 | 84 | 280 | 1.0 | 5.0 | 0.00 | 0.00 | 0.00 | 14 | 1009.4 |
| 20260508035639 | 84 | 281 | 0.0 | 0.0 | 0.00 | 0.00 | 0.00 | 14 | 1009.4 |
| 20260508035546 | 84 | 284 | 0.0 | 0.0 | 0.00 | 0.00 | 0.00 | 14 | 1009.5 |
| 20260508035423 | 84 | 284 | 0.0 | 0.0 | 0.00 | 0.00 | 0.00 | 15 | 1009.3 |
| 20260508035332 | 84 | 284 | 0.0 | 0.0 | 0.00 | 0.00 | 0.00 | 15 | 1009.4 |
| 20260508035234 | 84 | 284 | 0.0 | 0.0 | 0.00 | 0.00 | 0.00 | 14 | 1009.4 |
| 20260508035121 | 84 | 284 | 0.0 | 0.0 | 0.00 | 0.00 | 0.00 | 14 | 1009.3 |
| 20260508035023 | 84 | 284 | 0.0 | 0.0 | 0.00 | 0.00 | 0.00 | 14 | 1009.2 |
| 20260508034930 | 84 | 284 | 0.0 | 0.0 | 0.00 | 0.00 | 0.00 | 15 | 1009.4 |
| 20260508034834 | 84 | 284 | 0.0 | 0.0 | 0.00 | 0.00 | 0.00 | 14 | 1009.4 |
| 20260508034715 | 84 | 284 | 0.0 | 0.0 | 0.00 | 0.00 | 0.00 | 15 | 1009.3 |
| 20260508034625 | 85 | 284 | 0.0 | 0.0 | 0.00 | 0.00 | 0.00 | 15 | 1009.2 |
| 20260508034526 | 85 | 284 | 0.0 | 0.0 | 0.00 | 0.00 | 0.00 | 14 | 1009.3 |
| 20260508034438 | 85 | 284 | 0.0 | 0.0 | 0.00 | 0.00 | 0.00 | 14 | 1009.4 |
| 20260508034320 | 85 | 284 | 0.0 | 0.0 | 0.00 | 0.00 | 0.00 | 14 | 1009.3 |
| 20260508034251 | 85 | 284 | 0.0 | 0.0 | 0.00 | 0.00 | 0.00 | 14 | 1009.3 |
| 20260508034131 | 85 | 284 | 0.0 | 0.0 | 0.00 | 0.00 | 0.00 | 14 | 1009.2 |
| 20260508034041 | 85 | 284 | 0.0 | 0.0 | 0.00 | 0.00 | 0.00 | 14 | 1009.2 |
| 20260508033923 | 85 | 284 | 0.0 | 0.0 | 0.00 | 0.00 | 0.00 | 14 | 1009.2 |
| 20260508033829 | 85 | 284 | 0.0 | 0.0 | 0.00 | 0.00 | 0.00 | 14 | 1009.2 |
| 20260508033731 | 85 | 284 | 0.0 | 0.0 | 0.00 | 0.00 | 0.00 | 14 | 1009.2 |
| 20260508033630 | 85 | 284 | 0.0 | 0.0 | 0.00 | 0.00 | 0.00 | 14 | 1009.2 |
| 20260508033531 | 85 | 284 | 0.0 | 0.0 | 0.00 | 0.00 | 0.00 | 14 | 1009.2 |
| 20260508033441 | 86 | 284 | 0.0 | 0.0 | 0.00 | 0.00 | 0.00 | 14 | 1009.2 |
| 20260508033323 | 86 | 284 | 0.0 | 0.0 | 0.00 | 0.00 | 0.00 | 14 | 1009.2 |
| 20260508033226 | 86 | 284 | 0.0 | 0.0 | 0.00 | 0.00 | 0.00 | 14 | 1009.3 |
| 20260508033131 | 86 | 284 | 0.0 | 0.0 | 0.00 | 0.00 | 0.00 | 14 | 1009.2 |
| 20260508033042 | 86 | 284 | 0.0 | 0.0 | 0.00 | 0.00 | 0.00 | 14 | 1009.2 |
| 20260508032924 | 86 | 284 | 0.0 | 0.0 | 0.00 | 0.00 | 0.00 | 13 | 1009.0 |
| 20260508032826 | 86 | 284 | 0.0 | 0.0 | 0.00 | 0.00 | 0.00 | 13 | 1009.0 |
| 20260508032729 | 86 | 284 | 0.0 | 0.0 | 0.00 | 0.00 | 0.00 | 13 | 1009.0 |
| 20260508032638 | 86 | 284 | 0.0 | 0.0 | 0.00 | 0.00 | 0.00 | 14 | 1009.0 |
| 20260508032523 | 86 | 284 | 0.0 | 0.0 | 0.00 | 0.00 | 0.00 | 13 | 1009.0 |
| 20260508032426 | 86 | 284 | 0.0 | 0.0 | 0.00 | 0.00 | 0.00 | 13 | 1009.0 |
| 20260508032355 | 86 | 284 | 0.0 | 0.0 | 0.00 | 0.00 | 0.00 | 13 | 1008.9 |
| 20260508032216 | 86 | 284 | 0.0 | 0.0 | 0.00 | 0.00 | 0.00 | 13 | 1008.9 |
| 20260508032117 | 87 | 284 | 0.0 | 0.0 | 0.00 | 0.00 | 0.00 | 13 | 1009.0 |
| 20260508032027 | 87 | 284 | 0.0 | 0.0 | 0.00 | 0.00 | 0.00 | 13 | 1008.9 |
| 20260508031952 | 87 | 284 | 0.0 | 0.0 | 0.00 | 0.00 | 0.00 | 13 | 1009.0 |
| 20260508031841 | 87 | 284 | 0.0 | 0.0 | 0.00 | 0.00 | 0.00 | 13 | 1009.0 |
| 20260508031724 | 87 | 284 | 0.0 | 0.0 | 0.00 | 0.00 | 0.00 | 13 | 1009.1 |
| 20260508031625 | 87 | 284 | 0.0 | 0.0 | 0.00 | 0.00 | 0.00 | 13 | 1009.1 |
| 20260508031527 | 87 | 284 | 0.0 | 0.0 | 0.00 | 0.00 | 0.00 | 13 | 1009.0 |
| 20260508031434 | 87 | 284 | 0.0 | 0.0 | 0.00 | 0.00 | 0.00 | 13 | 1009.0 |
| 20260508031319 | 87 | 284 | 0.0 | 0.0 | 0.00 | 0.00 | 0.00 | 13 | 1009.0 |
| 20260508031226 | 87 | 284 | 0.0 | 0.0 | 0.00 | 0.00 | 0.00 | 13 | 1009.0 |
| 20260508031129 | 87 | 284 | 0.0 | 0.0 | 0.00 | 0.00 | 0.00 | 12 | 1009.0 |
| 20260508031030 | 87 | 284 | 0.0 | 0.0 | 0.00 | 0.00 | 0.00 | 13 | 1008.9 |
| 20260508030940 | 87 | 284 | 0.0 | 0.0 | 0.00 | 0.00 | 0.00 | 13 | 1008.9 |
| 20260508030819 | 87 | 284 | 0.0 | 0.0 | 0.00 | 0.00 | 0.00 | 12 | 1008.9 |
| 20260508030727 | 87 | 284 | 0.0 | 0.0 | 0.00 | 0.00 | 0.00 | 12 | 1008.9 |
| 20260508030626 | 87 | 284 | 0.0 | 0.0 | 0.00 | 0.00 | 0.00 | 12 | 1008.9 |
| 20260508030541 | 87 | 284 | 0.0 | 0.0 | 0.00 | 0.00 | 0.00 | 12 | 1008.9 |
| 20260508030421 | 87 | 284 | 0.0 | 0.0 | 0.00 | 0.00 | 0.00 | 12 | 1008.8 |
| 20260508030330 | 87 | 285 | 0.0 | 0.0 | 0.00 | 0.00 | 0.00 | 13 | 1008.8 |
| 20260508030232 | 87 | 285 | 0.0 | 0.0 | 0.00 | 0.00 | 0.00 | 13 | 1008.7 |
| 20260508030134 | 88 | 285 | 0.0 | 0.0 | 0.00 | 0.00 | 0.00 | 12 | 1008.7 |
| 20260508030035 | 88 | 285 | 0.0 | 0.0 | 0.00 | 0.00 | 0.00 | 13 | 1008.7 |
| 20260508025930 | 88 | 285 | 0.0 | 0.0 | 0.00 | 0.00 | 0.00 | 12 | 1008.7 |
| 20260508025831 | 88 | 285 | 0.0 | 0.0 | 0.00 | 0.00 | 0.00 | 13 | 1008.8 |
| 20260508025741 | 88 | 285 | 0.0 | 0.0 | 0.00 | 0.00 | 0.00 | 13 | 1008.8 |
| 20260508025641 | 88 | 285 | 0.0 | 0.0 | 0.00 | 0.00 | 0.00 | 13 | 1008.7 |
| 20260508025522 | 88 | 285 | 0.0 | 0.0 | 0.00 | 0.00 | 0.00 | 13 | 1008.8 |
| 20260508025432 | 88 | 285 | 0.0 | 0.0 | 0.00 | 0.00 | 0.00 | 13 | 1008.7 |
| 20260508025317 | 88 | 285 | 0.0 | 0.0 | 0.00 | 0.00 | 0.00 | 13 | 1008.7 |
| 20260508025220 | 88 | 285 | 0.0 | 0.0 | 0.00 | 0.00 | 0.00 | 13 | 1008.7 |
| 20260508025131 | 88 | 285 | 0.0 | 0.0 | 0.00 | 0.00 | 0.00 | 13 | 1008.7 |
| 20260508025031 | 88 | 285 | 0.0 | 0.0 | 0.00 | 0.00 | 0.00 | 12 | 1008.8 |
| 20260508025001 | 88 | 285 | 0.0 | 0.0 | 0.00 | 0.00 | 0.00 | 13 | 1008.8 |
| 20260508024819 | 88 | 285 | 0.0 | 0.0 | 0.00 | 0.00 | 0.00 | 13 | 1008.7 |
| 20260508024721 | 88 | 285 | 0.0 | 0.0 | 0.00 | 0.00 | 0.00 | 12 | 1008.8 |
| 20260508024633 | 88 | 285 | 0.0 | 0.0 | 0.00 | 0.00 | 0.00 | 13 | 1008.7 |
| 20260508024515 | 88 | 285 | 0.0 | 0.0 | 0.00 | 0.00 | 0.00 | 12 | 1008.6 |
| 20260508024437 | 88 | 285 | 0.0 | 0.0 | 0.00 | 0.00 | 0.00 | 12 | 1008.7 |
| 20260508024324 | 88 | 285 | 0.0 | 0.0 | 0.00 | 0.00 | 0.00 | 12 | 1008.6 |
| 20260508024225 | 88 | 285 | 0.0 | 0.0 | 0.00 | 0.00 | 0.00 | 13 | 1008.6 |
| 20260508024135 | 88 | 285 | 0.0 | 0.0 | 0.00 | 0.00 | 0.00 | 12 | 1008.7 |
| 20260508024017 | 88 | 285 | 0.0 | 0.0 | 0.00 | 0.00 | 0.00 | 12 | 1008.6 |
| 20260508023923 | 89 | 285 | 0.0 | 0.0 | 0.00 | 0.00 | 0.00 | 12 | 1008.6 |
| 20260508023825 | 89 | 285 | 0.0 | 0.0 | 0.00 | 0.00 | 0.00 | 13 | 1008.6 |
| 20260508023716 | 89 | 285 | 0.0 | 3.0 | 0.00 | 0.00 | 0.00 | 12 | 1008.6 |
| 20260508023615 | 89 | 285 | 0.0 | 3.0 | 0.00 | 0.00 | 0.00 | 12 | 1008.5 |
| 20260508023523 | 89 | 285 | 0.0 | 3.0 | 0.00 | 0.00 | 0.00 | 12 | 1008.4 |
| 20260508023425 | 89 | 285 | 0.0 | 3.0 | 0.00 | 0.00 | 0.00 | 12 | 1008.5 |
| 20260508023334 | 89 | 285 | 0.0 | 3.0 | 0.00 | 0.00 | 0.00 | 12 | 1008.4 |
| 20260508023220 | 89 | 286 | 0.0 | 4.0 | 0.00 | 0.00 | 0.00 | 12 | 1008.5 |
| 20260508023120 | 89 | 286 | 0.0 | 4.0 | 0.00 | 0.00 | 0.00 | 12 | 1008.4 |
| 20260508023029 | 89 | 286 | 0.0 | 4.0 | 0.00 | 0.00 | 0.00 | 12 | 1008.5 |
| 20260508022930 | 89 | 286 | 1.0 | 4.0 | 0.00 | 0.00 | 0.00 | 12 | 1008.6 |
| 20260508022832 | 89 | 287 | 1.0 | 4.0 | 0.00 | 0.00 | 0.00 | 12 | 1008.5 |
| 20260508022742 | 89 | 288 | 0.0 | 4.0 | 0.00 | 0.00 | 0.00 | 12 | 1008.5 |
| 20260508022628 | 89 | 288 | 0.0 | 4.0 | 0.00 | 0.00 | 0.00 | 12 | 1008.6 |
| 20260508022536 | 89 | 288 | 1.0 | 4.0 | 0.00 | 0.00 | 0.00 | 12 | 1008.6 |
| 20260508022436 | 90 | 290 | 1.0 | 4.0 | 0.00 | 0.00 | 0.00 | 12 | 1008.6 |
| 20260508022317 | 90 | 290 | 1.0 | 4.0 | 0.00 | 0.00 | 0.00 | 12 | 1008.5 |
| 20260508022220 | 90 | 293 | 1.0 | 3.0 | 0.00 | 0.00 | 0.00 | 12 | 1008.5 |
| 20260508022130 | 90 | 293 | 0.0 | 3.0 | 0.00 | 0.00 | 0.00 | 12 | 1008.5 |
| 20260508022016 | 90 | 296 | 1.0 | 3.0 | 0.00 | 0.00 | 0.00 | 12 | 1008.5 |
| 20260508021917 | 90 | 296 | 1.0 | 3.0 | 0.00 | 0.00 | 0.00 | 11 | 1008.4 |
| 20260508021825 | 90 | 300 | 1.0 | 3.0 | 0.00 | 0.00 | 0.00 | 12 | 1008.4 |
| 20260508021726 | 90 | 301 | 1.0 | 5.0 | 0.00 | 0.00 | 0.00 | 11 | 1008.4 |
| 20260508021634 | 90 | 304 | 1.0 | 5.0 | 0.00 | 0.00 | 0.00 | 11 | 1008.4 |
| 20260508021535 | 90 | 323 | 1.0 | 5.0 | 0.00 | 0.00 | 0.00 | 11 | 1008.4 |
| 20260508021417 | 91 | 323 | 1.0 | 5.0 | 0.00 | 0.00 | 0.00 | 11 | 1008.4 |
| 20260508021323 | 91 | 323 | 1.0 | 5.0 | 0.00 | 0.00 | 0.00 | 11 | 1008.4 |
| 20260508021233 | 91 | 323 | 0.0 | 5.0 | 0.00 | 0.00 | 0.00 | 11 | 1008.3 |
| 20260508021134 | 91 | 323 | 0.0 | 5.0 | 0.00 | 0.00 | 0.00 | 11 | 1008.4 |
| 20260508021103 | 91 | 323 | 1.0 | 5.0 | 0.00 | 0.00 | 0.00 | 11 | 1008.4 |
| 20260508020924 | 91 | 323 | 1.0 | 5.0 | 0.00 | 0.00 | 0.00 | 11 | 1008.4 |
| 20260508020825 | 91 | 323 | 1.0 | 5.0 | 0.00 | 0.00 | 0.00 | 11 | 1008.5 |
| 20260508020740 | 91 | 323 | 1.0 | 5.0 | 0.00 | 0.00 | 0.00 | 11 | 1008.5 |
| 20260508020620 | 91 | 323 | 1.0 | 5.0 | 0.00 | 0.00 | 0.00 | 11 | 1008.4 |
| 20260508020547 | 91 | 249 | 0.0 | 5.0 | 0.00 | 0.00 | 0.00 | 11 | 1008.3 |
| 20260508020428 | 91 | 252 | 0.0 | 1.0 | 0.00 | 0.00 | 0.00 | 11 | 1008.3 |
| 20260508020330 | 91 | 252 | 0.0 | 3.0 | 0.00 | 0.00 | 0.00 | 11 | 1008.2 |
| 20260508020238 | 91 | 251 | 0.0 | 3.0 | 0.00 | 0.00 | 0.00 | 11 | 1008.3 |
| 20260508020139 | 91 | 251 | 0.0 | 6.0 | 0.00 | 0.00 | 0.00 | 11 | 1008.3 |
| 20260508020037 | 91 | 251 | 0.0 | 6.0 | 0.00 | 0.00 | 0.00 | 11 | 1008.3 |
| 20260508015931 | 91 | 252 | 0.0 | 6.0 | 0.00 | 0.00 | 0.00 | 11 | 1008.3 |
| 20260508015841 | 91 | 63 | 0.0 | 6.0 | 0.00 | 0.00 | 0.00 | 11 | 1008.3 |
| 20260508015723 | 91 | 304 | 0.0 | 6.0 | 0.00 | 0.00 | 0.00 | 11 | 1008.2 |
| 20260508015624 | 91 | 304 | 0.0 | 6.0 | 0.00 | 0.00 | 0.00 | 11 | 1008.2 |
| 20260508015553 | 91 | 304 | 1.0 | 6.0 | 0.00 | 0.00 | 0.00 | 11 | 1008.3 |
| 20260508015434 | 92 | 240 | 2.0 | 6.0 | 0.00 | 0.00 | 0.00 | 11 | 1008.2 |
| 20260508015321 | 92 | 240 | 2.0 | 6.0 | 0.00 | 0.00 | 0.00 | 11 | 1008.2 |
| 20260508015222 | 92 | 239 | 1.0 | 6.0 | 0.00 | 0.00 | 0.00 | 11 | 1008.2 |
| 20260508015131 | 92 | 239 | 0.0 | 1.0 | 0.00 | 0.00 | 0.00 | 11 | 1008.2 |
| 20260508015052 | 92 | 239 | 0.0 | 1.0 | 0.00 | 0.00 | 0.00 | 10 | 1008.2 |
| 20260508014941 | 92 | 239 | 0.0 | 1.0 | 0.00 | 0.00 | 0.00 | 10 | 1008.2 |
| 20260508014823 | 92 | 239 | 0.0 | 1.0 | 0.00 | 0.00 | 0.00 | 10 | 1008.1 |
| 20260508014723 | 92 | 238 | 0.0 | 1.0 | 0.00 | 0.00 | 0.00 | 10 | 1008.1 |
| 20260508014615 | 92 | 238 | 0.0 | 1.0 | 0.00 | 0.00 | 0.00 | 10 | 1008.1 |
| 20260508014517 | 92 | 238 | 0.0 | 1.0 | 0.00 | 0.00 | 0.00 | 10 | 1008.2 |
| 20260508014419 | 92 | 237 | 0.0 | 0.0 | 0.00 | 0.00 | 0.00 | 10 | 1008.1 |
| 20260508014328 | 92 | 237 | 0.0 | 0.0 | 0.00 | 0.00 | 0.00 | 10 | 1008.2 |
| 20260508014230 | 92 | 237 | 0.0 | 4.0 | 0.00 | 0.00 | 0.00 | 10 | 1008.2 |
| 20260508014131 | 92 | 236 | 0.0 | 7.0 | 0.00 | 0.00 | 0.00 | 10 | 1008.2 |
| 20260508014017 | 92 | 236 | 0.0 | 7.0 | 0.00 | 0.00 | 0.00 | 10 | 1008.2 |
| 20260508013927 | 92 | 236 | 0.0 | 7.0 | 0.00 | 0.00 | 0.00 | 10 | 1008.2 |
| 20260508013828 | 93 | 235 | 0.0 | 7.0 | 0.00 | 0.00 | 0.00 | 10 | 1008.2 |
| 20260508013737 | 93 | 235 | 0.0 | 7.0 | 0.00 | 0.00 | 0.00 | 10 | 1008.3 |
| 20260508013618 | 93 | 235 | 0.0 | 7.0 | 0.00 | 0.00 | 0.00 | 10 | 1008.2 |
| 20260508013519 | 93 | 235 | 2.0 | 7.0 | 0.00 | 0.00 | 0.00 | 10 | 1008.1 |
| 20260508013425 | 93 | 235 | 2.0 | 7.0 | 0.00 | 0.00 | 0.00 | 10 | 1008.1 |
| 20260508013334 | 93 | 235 | 2.0 | 7.0 | 0.00 | 0.00 | 0.00 | 10 | 1008.2 |
| 20260508013216 | 93 | 233 | 2.0 | 5.0 | 0.00 | 0.00 | 0.00 | 10 | 1008.2 |
| 20260508013118 | 93 | 233 | 2.0 | 5.0 | 0.00 | 0.00 | 0.00 | 10 | 1008.2 |
| 20260508013047 | 93 | 232 | 1.0 | 5.0 | 0.00 | 0.00 | 0.00 | 10 | 1008.3 |
| 20260508012927 | 93 | 232 | 0.0 | 4.0 | 0.00 | 0.00 | 0.00 | 9 | 1008.1 |
| 20260508012841 | 93 | 232 | 0.0 | 5.0 | 0.00 | 0.00 | 0.00 | 9 | 1008.1 |
| 20260508012723 | 93 | 233 | 0.0 | 6.0 | 0.00 | 0.00 | 0.00 | 9 | 1008.1 |
| 20260508012624 | 93 | 233 | 0.0 | 6.0 | 0.00 | 0.00 | 0.00 | 9 | 1008.1 |
| 20260508012526 | 93 | 233 | 0.0 | 6.0 | 0.00 | 0.00 | 0.00 | 9 | 1008.1 |
| 20260508012425 | 93 | 233 | 0.0 | 6.0 | 0.00 | 0.00 | 0.00 | 10 | 1008.2 |
| 20260508012346 | 93 | 233 | 0.0 | 6.0 | 0.00 | 0.00 | 0.00 | 10 | 1008.2 |
| 20260508012233 | 93 | 234 | 1.0 | 6.0 | 0.00 | 0.00 | 0.00 | 10 | 1008.2 |
| 20260508012120 | 93 | 234 | 2.0 | 6.0 | 0.00 | 0.00 | 0.00 | 10 | 1008.1 |
| 20260508012022 | 93 | 236 | 1.0 | 6.0 | 0.00 | 0.00 | 0.00 | 10 | 1008.2 |
| 20260508011929 | 93 | 236 | 0.0 | 6.0 | 0.00 | 0.00 | 0.00 | 10 | 1008.1 |
| 20260508011838 | 93 | 236 | 0.0 | 6.0 | 0.00 | 0.00 | 0.00 | 10 | 1008.0 |
| 20260508011718 | 94 | 237 | 0.0 | 6.0 | 0.00 | 0.00 | 0.00 | 9 | 1008.1 |
| 20260508011620 | 94 | 236 | 0.0 | 6.0 | 0.00 | 0.00 | 0.00 | 10 | 1008.0 |
| 20260508011525 | 94 | 234 | 0.0 | 6.0 | 0.00 | 0.00 | 0.00 | 10 | 1008.1 |
| 20260508011434 | 94 | 235 | 0.0 | 6.0 | 0.00 | 0.00 | 0.00 | 10 | 1008.1 |
| 20260508011317 | 94 | 235 | 1.0 | 6.0 | 0.00 | 0.00 | 0.00 | 10 | 1008.0 |
| 20260508011239 | 94 | 233 | 0.0 | 5.0 | 0.00 | 0.00 | 0.00 | 10 | 1008.2 |
| 20260508011127 | 94 | 233 | 0.0 | 5.0 | 0.00 | 0.00 | 0.00 | 10 | 1008.1 |
| 20260508011030 | 94 | 233 | 0.0 | 5.0 | 0.00 | 0.00 | 0.00 | 10 | 1008.1 |
| 20260508010958 | 94 | 232 | 0.0 | 5.0 | 0.00 | 0.00 | 0.00 | 10 | 1008.1 |
| 20260508010823 | 94 | 239 | 2.0 | 5.0 | 0.00 | 0.00 | 0.00 | 10 | 1008.0 |
| 20260508010722 | 94 | 239 | 2.0 | 5.0 | 0.00 | 0.00 | 0.00 | 10 | 1008.0 |
| 20260508010630 | 94 | 240 | 2.0 | 5.0 | 0.00 | 0.00 | 0.00 | 10 | 1008.0 |
| 20260508010531 | 94 | 240 | 1.0 | 5.0 | 0.00 | 0.00 | 0.00 | 10 | 1008.0 |
| 20260508010503 | 94 | 240 | 1.0 | 5.0 | 0.00 | 0.00 | 0.00 | 10 | 1008.0 |
| 20260508010323 | 94 | 240 | 0.0 | 5.0 | 0.00 | 0.00 | 0.00 | 11 | 1008.0 |
| 20260508010225 | 94 | 240 | 1.0 | 5.0 | 0.00 | 0.00 | 0.00 | 11 | 1008.0 |
| 20260508010140 | 94 | 240 | 2.0 | 5.0 | 0.00 | 0.00 | 0.00 | 10 | 1008.0 |
| 20260508010032 | 94 | 240 | 2.0 | 7.0 | 0.00 | 0.00 | 0.00 | 9 | 1008.1 |
| 20260508005930 | 94 | 240 | 2.0 | 7.0 | 0.00 | 0.00 | 0.00 | 10 | 1008.2 |
| 20260508005830 | 94 | 240 | 2.0 | 7.0 | 0.00 | 0.00 | 0.00 | 9 | 1008.2 |
| 20260508005801 | 94 | 240 | 1.0 | 7.0 | 0.00 | 0.00 | 0.00 | 9 | 1008.2 |
| 20260508005623 | 94 | 243 | 0.0 | 7.0 | 0.00 | 0.00 | 0.00 | 9 | 1008.2 |
| 20260508005544 | 94 | 243 | 0.0 | 8.0 | 0.00 | 0.00 | 0.00 | 9 | 1008.2 |
| 20260508005437 | 94 | 243 | 0.0 | 8.0 | 0.00 | 0.00 | 0.00 | 9 | 1008.1 |
| 20260508005317 | 94 | 243 | 2.0 | 8.0 | 0.00 | 0.00 | 0.00 | 9 | 1008.0 |
| 20260508005220 | 94 | 243 | 3.0 | 8.0 | 0.00 | 0.00 | 0.00 | 9 | 1008.1 |
| 20260508005129 | 94 | 242 | 1.0 | 8.0 | 0.00 | 0.00 | 0.00 | 9 | 1008.0 |
| 20260508005031 | 95 | 238 | 0.0 | 8.0 | 0.00 | 0.00 | 0.00 | 9 | 1008.1 |
| 20260508004933 | 95 | 237 | 0.0 | 8.0 | 0.00 | 0.00 | 0.00 | 9 | 1008.1 |
| 20260508004818 | 95 | 231 | 2.0 | 8.0 | 0.00 | 0.00 | 0.00 | 9 | 1008.1 |
| 20260508004727 | 95 | 231 | 3.0 | 8.0 | 0.00 | 0.00 | 0.00 | 9 | 1008.1 |
| 20260508004630 | 95 | 221 | 1.0 | 8.0 | 0.00 | 0.00 | 0.00 | 9 | 1008.1 |
| 20260508004531 | 95 | 220 | 2.0 | 8.0 | 0.00 | 0.00 | 0.00 | 9 | 1008.1 |
| 20260508004441 | 95 | 220 | 3.0 | 8.0 | 0.00 | 0.00 | 0.00 | 9 | 1008.1 |
| 20260508004323 | 95 | 218 | 2.0 | 8.0 | 0.00 | 0.00 | 0.00 | 9 | 1008.1 |
| 20260508004230 | 95 | 214 | 3.0 | 8.0 | 0.00 | 0.00 | 0.00 | 9 | 1008.1 |
| 20260508004141 | 95 | 214 | 3.0 | 8.0 | 0.00 | 0.00 | 0.00 | 9 | 1008.1 |
| 20260508004022 | 95 | 217 | 1.0 | 8.0 | 0.00 | 0.00 | 0.00 | 9 | 1008.1 |
| 20260508003925 | 95 | 217 | 0.0 | 8.0 | 0.00 | 0.00 | 0.00 | 9 | 1008.1 |
| 20260508003826 | 95 | 238 | 0.0 | 8.0 | 0.00 | 0.00 | 0.00 | 10 | 1008.1 |
| 20260508003755 | 95 | 238 | 1.0 | 8.0 | 0.00 | 0.00 | 0.00 | 9 | 1008.1 |
| 20260508003620 | 96 | 238 | 2.0 | 8.0 | 0.00 | 0.00 | 0.00 | 9 | 1008.0 |
| 20260508003522 | 96 | 236 | 1.0 | 6.0 | 0.00 | 0.00 | 0.00 | 10 | 1008.1 |
| 20260508003431 | 96 | 229 | 0.0 | 5.0 | 0.00 | 0.00 | 0.00 | 9 | 1008.0 |
| 20260508003333 | 96 | 229 | 0.0 | 5.0 | 0.00 | 0.00 | 0.00 | 9 | 1008.1 |
| 20260508003242 | 96 | 229 | 0.0 | 6.0 | 0.00 | 0.00 | 0.00 | 9 | 1008.1 |
| 20260508003145 | 95 | 229 | 0.0 | 7.0 | 0.00 | 0.00 | 0.00 | 9 | 1008.1 |
| 20260508003026 | 95 | 229 | 0.0 | 8.0 | 0.00 | 0.00 | 0.00 | 10 | 1008.1 |
| 20260508002938 | 95 | 231 | 0.0 | 9.0 | 0.00 | 0.00 | 0.00 | 10 | 1008.0 |
| 20260508002846 | 95 | 231 | 0.0 | 9.0 | 0.00 | 0.00 | 0.00 | 9 | 1008.1 |
| 20260508002747 | 95 | 231 | 1.0 | 9.0 | 0.00 | 0.00 | 0.00 | 10 | 1008.1 |
| 20260508002635 | 95 | 231 | 2.0 | 9.0 | 0.00 | 0.00 | 0.00 | 9 | 1008.1 |
| 20260508002536 | 95 | 231 | 3.0 | 9.0 | 0.00 | 0.00 | 0.00 | 9 | 1008.2 |
| 20260508002417 | 95 | 226 | 4.0 | 9.0 | 0.00 | 0.00 | 0.00 | 9 | 1008.1 |
| 20260508002326 | 95 | 234 | 5.0 | 9.0 | 0.00 | 0.00 | 0.00 | 9 | 1008.2 |
| 20260508002232 | 95 | 236 | 5.0 | 9.0 | 0.00 | 0.00 | 0.00 | 9 | 1008.2 |
| 20260508002135 | 95 | 239 | 3.0 | 9.0 | 0.00 | 0.00 | 0.00 | 10 | 1008.1 |
| 20260508002023 | 95 | 266 | 1.0 | 8.0 | 0.00 | 0.00 | 0.00 | 9 | 1008.1 |
| 20260508001926 | 95 | 266 | 0.0 | 8.0 | 0.00 | 0.00 | 0.00 | 9 | 1008.1 |
| 20260508001855 | 95 | 268 | 0.0 | 8.0 | 0.00 | 0.00 | 0.00 | 9 | 1008.1 |
| 20260508001647 | 96 | 276 | 2.0 | 8.0 | 0.00 | 0.00 | 0.00 | 9 | 1008.1 |
| 20260508001540 | 96 | 278 | 1.0 | 8.0 | 0.00 | 0.00 | 0.00 | 9 | 1008.1 |
| 20260508001443 | 96 | 279 | 2.0 | 9.0 | 0.00 | 0.00 | 0.00 | 9 | 1008.0 |
| 20260508001349 | 96 | 279 | 4.0 | 9.0 | 0.00 | 0.00 | 0.00 | 9 | 1008.1 |
| 20260508001230 | 96 | 280 | 4.0 | 9.0 | 0.00 | 0.00 | 0.00 | 9 | 1008.0 |
| 20260508001138 | 96 | 277 | 3.0 | 9.0 | 0.00 | 0.00 | 0.00 | 9 | 1008.0 |
| 20260508001020 | 95 | 239 | 3.0 | 9.0 | 0.00 | 0.00 | 0.00 | 9 | 1008.1 |
| 20260508000922 | 95 | 236 | 4.0 | 9.0 | 0.00 | 0.00 | 0.00 | 9 | 1008.1 |
| 20260508000828 | 95 | 249 | 5.0 | 9.0 | 0.00 | 0.00 | 0.00 | 9 | 1008.1 |
| 20260508000738 | 96 | 248 | 4.0 | 9.0 | 0.00 | 0.00 | 0.00 | 9 | 1008.1 |
| 20260508000620 | 96 | 264 | 1.0 | 9.0 | 0.00 | 0.00 | 0.00 | 9 | 1008.1 |
| 20260508000522 | 95 | 261 | 0.0 | 7.0 | 0.00 | 0.00 | 0.00 | 9 | 1008.1 |
| 20260508000451 | 95 | 261 | 0.0 | 7.0 | 0.00 | 0.00 | 0.00 | 9 | 1008.1 |
| 20260508000331 | 95 | 261 | 0.0 | 7.0 | 0.00 | 0.00 | 0.00 | 9 | 1008.1 |
| 20260508000216 | 96 | 243 | 0.0 | 7.0 | 0.00 | 0.00 | 0.00 | 9 | 1008.1 |
| 20260508000119 | 96 | 236 | 0.0 | 7.0 | 0.00 | 0.00 | 0.00 | 9 | 1008.1 |
| 20260508000039 | 96 | 191 | 0.0 | 7.0 | 0.00 | 0.00 | 0.00 | 9 | 1008.1 |
| 20260507235935 | 96 | 190 | 0.0 | 7.0 | 0.00 | 0.00 | 0.00 | 9 | 1008.1 |
| 20260507235834 | 96 | 262 | 1.0 | 7.0 | 0.00 | 0.00 | 0.00 | 9 | 1008.1 |
| 20260507235716 | 96 | 262 | 2.0 | 8.0 | 0.00 | 0.00 | 0.00 | 9 | 1008.1 |
| 20260507235646 | 96 | 262 | 2.0 | 8.0 | 0.00 | 0.00 | 0.00 | 9 | 1008.1 |
| 20260507235554 | 96 | 274 | 0.0 | 8.0 | 0.00 | 0.00 | 0.00 | 9 | 1008.1 |
| 20260507235339 | 96 | 280 | 0.0 | 8.0 | 0.00 | 0.00 | 0.00 | 10 | 1008.2 |
| 20260507235219 | 96 | 281 | 0.0 | 8.0 | 0.00 | 0.00 | 0.00 | 9 | 1008.2 |
| 20260507235127 | 96 | 281 | 1.0 | 8.0 | 0.00 | 0.00 | 0.00 | 9 | 1008.3 |
| 20260507235028 | 95 | 289 | 3.0 | 8.0 | 0.00 | 0.00 | 0.00 | 9 | 1008.3 |
| 20260507234938 | 95 | 253 | 4.0 | 8.0 | 0.00 | 0.00 | 0.00 | 9 | 1008.3 |
| 20260507234839 | 95 | 253 | 3.0 | 8.0 | 0.00 | 0.00 | 0.00 | 9 | 1008.3 |
| 20260507234724 | 96 | 252 | 3.0 | 8.0 | 0.00 | 0.00 | 0.00 | 9 | 1008.4 |
| 20260507234632 | 96 | 252 | 3.0 | 8.0 | 0.00 | 0.00 | 0.00 | 9 | 1008.3 |
| 20260507234534 | 96 | 252 | 2.0 | 8.0 | 0.00 | 0.00 | 0.00 | 9 | 1008.3 |
| 20260507234503 | 96 | 253 | 0.0 | 8.0 | 0.00 | 0.00 | 0.00 | 9 | 1008.3 |
| 20260507234323 | 96 | 253 | 0.0 | 8.0 | 0.00 | 0.00 | 0.00 | 9 | 1008.3 |
| 20260507234224 | 96 | 252 | 0.0 | 8.0 | 0.00 | 0.00 | 0.00 | 9 | 1008.2 |
| 20260507234152 | 96 | 249 | 0.0 | 8.0 | 0.00 | 0.00 | 0.00 | 8 | 1008.2 |
| 20260507234016 | 96 | 258 | 0.0 | 8.0 | 0.00 | 0.00 | 0.00 | 9 | 1008.2 |
| 20260507233924 | 96 | 259 | 1.0 | 8.0 | 0.00 | 0.00 | 0.00 | 9 | 1008.2 |
| 20260507233826 | 96 | 259 | 1.0 | 8.0 | 0.00 | 0.00 | 0.00 | 9 | 1008.2 |
| 20260507233735 | 96 | 259 | 1.0 | 8.0 | 0.00 | 0.00 | 0.00 | 9 | 1008.2 |
| 20260507233617 | 96 | 258 | 1.0 | 7.0 | 0.00 | 0.00 | 0.00 | 9 | 1008.2 |
| 20260507233520 | 96 | 258 | 0.0 | 7.0 | 0.00 | 0.00 | 0.00 | 9 | 1008.1 |
| 20260507233423 | 96 | 270 | 0.0 | 7.0 | 0.00 | 0.00 | 0.00 | 9 | 1008.2 |
| 20260507233335 | 96 | 274 | 0.0 | 7.0 | 0.00 | 0.00 | 0.00 | 9 | 1008.2 |
| 20260507233218 | 96 | 274 | 1.0 | 7.0 | 0.00 | 0.00 | 0.00 | 8 | 1008.2 |
| 20260507233122 | 96 | 273 | 1.0 | 7.0 | 0.00 | 0.00 | 0.00 | 9 | 1008.2 |
| 20260507233023 | 96 | 278 | 2.0 | 7.0 | 0.00 | 0.00 | 0.00 | 9 | 1008.3 |
| 20260507232931 | 96 | 280 | 3.0 | 7.0 | 0.00 | 0.00 | 0.00 | 9 | 1008.3 |
| 20260507232817 | 96 | 226 | 3.0 | 7.0 | 0.00 | 0.00 | 0.00 | 8 | 1008.3 |
| 20260507232741 | 96 | 268 | 2.0 | 7.0 | 0.00 | 0.00 | 0.00 | 9 | 1008.3 |
| 20260507232628 | 96 | 270 | 2.0 | 7.0 | 0.00 | 0.00 | 0.00 | 9 | 1008.3 |
| 20260507232528 | 96 | 270 | 2.0 | 7.0 | 0.00 | 0.00 | 0.00 | 9 | 1008.3 |
| 20260507232440 | 96 | 271 | 1.0 | 6.0 | 0.00 | 0.00 | 0.00 | 9 | 1008.3 |
| 20260507232342 | 96 | 261 | 0.0 | 8.0 | 0.00 | 0.00 | 0.00 | 9 | 1008.3 |
| 20260507232222 | 96 | 257 | 0.0 | 8.0 | 0.00 | 0.00 | 0.00 | 9 | 1008.2 |
| 20260507232137 | 96 | 257 | 0.0 | 8.0 | 0.00 | 0.00 | 0.00 | 11 | 1008.2 |
| 20260507232018 | 96 | 257 | 2.0 | 8.0 | 0.00 | 0.00 | 0.00 | 9 | 1008.3 |
| 20260507231920 | 97 | 257 | 2.0 | 9.0 | 0.00 | 0.00 | 0.00 | 9 | 1008.3 |
| 20260507231823 | 97 | 271 | 0.0 | 11.0 | 0.00 | 0.00 | 0.00 | 9 | 1008.2 |
| 20260507231732 | 97 | 269 | 0.0 | 11.0 | 0.00 | 0.00 | 0.00 | 9 | 1008.2 |
| 20260507231653 | 97 | 259 | 2.0 | 11.0 | 0.00 | 0.00 | 0.00 | 9 | 1008.2 |
| 20260507231518 | 97 | 274 | 2.0 | 11.0 | 0.00 | 0.00 | 0.00 | 9 | 1008.3 |
| 20260507231427 | 96 | 259 | 0.0 | 11.0 | 0.00 | 0.00 | 0.00 | 9 | 1008.3 |
| 20260507231330 | 96 | 245 | 0.0 | 11.0 | 0.00 | 0.00 | 0.00 | 9 | 1008.3 |
| 20260507231232 | 96 | 244 | 1.0 | 11.0 | 0.00 | 0.00 | 0.00 | 9 | 1008.3 |
| 20260507231141 | 96 | 247 | 4.0 | 11.0 | 0.00 | 0.00 | 0.00 | 9 | 1008.3 |
| 20260507231023 | 96 | 251 | 3.0 | 11.0 | 0.00 | 0.00 | 0.00 | 9 | 1008.4 |
| 20260507230945 | 96 | 217 | 0.0 | 8.0 | 0.00 | 0.00 | 0.00 | 9 | 1008.4 |
| 20260507230817 | 96 | 216 | 0.0 | 8.0 | 0.00 | 0.00 | 0.00 | 9 | 1008.4 |
| 20260507230720 | 97 | 212 | 0.0 | 8.0 | 0.00 | 0.00 | 0.00 | 8 | 1008.5 |
| 20260507230621 | 97 | 212 | 1.0 | 8.0 | 0.00 | 0.00 | 0.00 | 8 | 1008.6 |
| 20260507230550 | 97 | 218 | 2.0 | 8.0 | 0.00 | 0.00 | 0.00 | 9 | 1008.4 |
| 20260507230429 | 97 | 264 | 3.0 | 8.0 | 0.00 | 0.00 | 0.00 | 9 | 1008.4 |
| 20260507230340 | 96 | 178 | 2.0 | 8.0 | 0.00 | 0.00 | 0.00 | 9 | 1008.4 |
| 20260507230226 | 96 | 178 | 1.0 | 8.0 | 0.00 | 0.00 | 0.00 | 9 | 1008.3 |
| 20260507230147 | 96 | 239 | 0.0 | 8.0 | 0.00 | 0.00 | 0.00 | 9 | 1008.3 |
| 20260507230027 | 96 | 239 | 0.0 | 8.0 | 0.00 | 0.00 | 0.00 | 8 | 1008.2 |
| 20260507225937 | 96 | 238 | 0.0 | 8.0 | 0.00 | 0.00 | 0.00 | 8 | 1008.4 |
| 20260507225824 | 96 | 231 | 2.0 | 8.0 | 0.00 | 0.00 | 0.00 | 9 | 1008.4 |
| 20260507225746 | 96 | 254 | 2.0 | 8.0 | 0.00 | 0.00 | 0.00 | 8 | 1008.4 |
| 20260507225635 | 97 | 254 | 1.0 | 8.0 | 0.00 | 0.00 | 0.00 | 8 | 1008.4 |
| 20260507225521 | 97 | 253 | 0.0 | 2.0 | 0.00 | 0.00 | 0.00 | 8 | 1008.3 |
| 20260507225424 | 97 | 178 | 1.0 | 2.0 | 0.00 | 0.00 | 0.00 | 9 | 1008.4 |
| 20260507225332 | 96 | 175 | 1.0 | 3.0 | 0.00 | 0.00 | 0.00 | 9 | 1008.4 |
| 20260507225234 | 96 | 175 | 0.0 | 3.0 | 0.00 | 0.00 | 0.00 | 9 | 1008.4 |
| 20260507225117 | 96 | 175 | 0.0 | 3.0 | 0.00 | 0.00 | 0.00 | 8 | 1008.4 |
| 20260507225026 | 96 | 175 | 0.0 | 4.0 | 0.00 | 0.00 | 0.00 | 8 | 1008.4 |
| 20260507224933 | 96 | 175 | 0.0 | 4.0 | 0.00 | 0.00 | 0.00 | 9 | 1008.4 |
| 20260507224903 | 96 | 175 | 0.0 | 7.0 | 0.00 | 0.00 | 0.00 | 9 | 1008.4 |
| 20260507224724 | 96 | 176 | 0.0 | 7.0 | 0.00 | 0.00 | 0.00 | 9 | 1008.5 |
| 20260507224626 | 96 | 176 | 0.0 | 7.0 | 0.00 | 0.00 | 0.00 | 8 | 1008.6 |
| 20260507224528 | 96 | 255 | 0.0 | 8.0 | 0.00 | 0.00 | 0.00 | 8 | 1008.4 |
| 20260507224435 | 96 | 260 | 0.0 | 8.0 | 0.00 | 0.00 | 0.00 | 11 | 1008.4 |
| 20260507224316 | 96 | 261 | 1.0 | 8.0 | 0.00 | 0.00 | 0.00 | 10 | 1008.4 |
| 20260507224222 | 96 | 261 | 3.0 | 8.0 | 0.00 | 0.00 | 0.00 | 9 | 1008.5 |
| 20260507224131 | 96 | 261 | 4.0 | 8.0 | 0.00 | 0.00 | 0.00 | 8 | 1008.6 |
| 20260507224053 | 96 | 264 | 3.0 | 8.0 | 0.00 | 0.00 | 0.00 | 8 | 1008.6 |
| 20260507223942 | 96 | 258 | 2.0 | 8.0 | 0.00 | 0.00 | 0.00 | 8 | 1008.6 |
| 20260507223844 | 96 | 257 | 3.0 | 8.0 | 0.00 | 0.00 | 0.00 | 8 | 1008.7 |
| 20260507223751 | 96 | 257 | 4.0 | 8.0 | 0.00 | 0.00 | 0.00 | 8 | 1008.7 |
| 20260507223659 | 96 | 257 | 3.0 | 8.0 | 0.00 | 0.00 | 0.00 | 8 | 1008.6 |
| 20260507223523 | 96 | 257 | 1.0 | 8.0 | 0.00 | 0.00 | 0.00 | 8 | 1008.7 |
| 20260507223446 | 96 | 250 | 0.0 | 7.0 | 0.00 | 0.00 | 0.00 | 8 | 1008.7 |
| 20260507223334 | 96 | 217 | 0.0 | 7.0 | 0.00 | 0.00 | 0.00 | 8 | 1008.7 |
| 20260507223232 | 96 | 218 | 0.0 | 7.0 | 0.00 | 0.00 | 0.00 | 8 | 1008.7 |
| 20260507223119 | 96 | 226 | 0.0 | 7.0 | 0.00 | 0.00 | 0.00 | 8 | 1008.8 |
| 20260507223022 | 96 | 224 | 2.0 | 7.0 | 0.00 | 0.00 | 0.00 | 8 | 1008.7 |
| 20260507222930 | 96 | 231 | 2.0 | 7.0 | 0.00 | 0.00 | 0.00 | 8 | 1008.8 |
| 20260507222832 | 96 | 231 | 0.0 | 1.0 | 0.00 | 0.00 | 0.00 | 8 | 1008.8 |
| 20260507222725 | 96 | 233 | 0.0 | 1.0 | 0.00 | 0.00 | 0.00 | 8 | 1008.7 |
| 20260507222627 | 96 | 247 | 0.0 | 1.0 | 0.00 | 0.00 | 0.00 | 8 | 1008.7 |
| 20260507222528 | 96 | 241 | 0.0 | 1.0 | 0.00 | 0.00 | 0.00 | 8 | 1008.8 |
| 20260507222437 | 96 | 241 | 0.0 | 1.0 | 0.00 | 0.00 | 0.00 | 8 | 1008.8 |
| 20260507222318 | 96 | 240 | 0.0 | 1.0 | 0.00 | 0.00 | 0.00 | 8 | 1008.8 |
| 20260507222220 | 97 | 242 | 0.0 | 1.0 | 0.00 | 0.00 | 0.00 | 8 | 1008.9 |
| 20260507222126 | 97 | 243 | 0.0 | 1.0 | 0.00 | 0.00 | 0.00 | 8 | 1008.7 |
| 20260507222035 | 97 | 242 | 0.0 | 1.0 | 0.00 | 0.00 | 0.00 | 8 | 1008.9 |
| 20260507221917 | 97 | 230 | 0.0 | 0.0 | 0.00 | 0.00 | 0.00 | 8 | 1008.8 |
| 20260507221820 | 97 | 110 | 0.0 | 0.0 | 0.00 | 0.00 | 0.00 | 8 | 1008.7 |
| 20260507221749 | 97 | 110 | 0.0 | 0.0 | 0.00 | 0.00 | 0.00 | 8 | 1008.7 |
| 20260507221629 | 97 | 110 | 0.0 | 0.0 | 0.00 | 0.00 | 0.00 | 9 | 1008.8 |
| 20260507221537 | 97 | 110 | 0.0 | 0.0 | 0.00 | 0.00 | 0.00 | 11 | 1008.7 |
| 20260507221422 | 97 | 110 | 0.0 | 0.0 | 0.00 | 0.00 | 0.00 | 10 | 1008.8 |
| 20260507221331 | 97 | 110 | 0.0 | 0.0 | 0.00 | 0.00 | 0.00 | 9 | 1008.7 |
| 20260507221231 | 97 | 110 | 0.0 | 0.0 | 0.00 | 0.00 | 0.00 | 8 | 1008.7 |
| 20260507221201 | 98 | 110 | 0.0 | 0.0 | 0.00 | 0.00 | 0.00 | 10 | 1008.7 |
| 20260507221023 | 98 | 110 | 0.0 | 0.0 | 0.00 | 0.00 | 0.00 | 11 | 1008.8 |
| 20260507220924 | 98 | 110 | 0.0 | 0.0 | 0.00 | 0.00 | 0.00 | 10 | 1008.7 |
| 20260507220825 | 98 | 110 | 0.0 | 0.0 | 0.00 | 0.00 | 0.00 | 10 | 1008.8 |
| 20260507220739 | 98 | 110 | 0.0 | 0.0 | 0.00 | 0.00 | 0.00 | 8 | 1008.8 |
| 20260507220620 | 98 | 110 | 0.0 | 0.0 | 0.00 | 0.00 | 0.00 | 11 | 1008.9 |
| 20260507220522 | 98 | 110 | 0.0 | 0.0 | 0.00 | 0.00 | 0.00 | 11 | 1009.0 |
| 20260507220423 | 98 | 113 | 0.0 | 0.0 | 0.00 | 0.00 | 0.00 | 11 | 1009.0 |
| 20260507220332 | 98 | 117 | 0.0 | 0.0 | 0.00 | 0.00 | 0.00 | 12 | 1009.1 |
| 20260507220219 | 98 | 160 | 0.0 | 0.0 | 0.00 | 0.00 | 0.00 | 12 | 1009.1 |
| 20260507220120 | 98 | 162 | 0.0 | 0.0 | 0.00 | 0.00 | 0.00 | 11 | 1009.1 |
| 20260507220040 | 98 | 162 | 0.0 | 0.0 | 0.00 | 0.00 | 0.00 | 12 | 1009.1 |
| 20260507215929 | 97 | 164 | 0.0 | 0.0 | 0.00 | 0.00 | 0.00 | 11 | 1009.1 |
| 20260507215840 | 97 | 163 | 0.0 | 0.0 | 0.00 | 0.00 | 0.00 | 11 | 1009.1 |
| 20260507215722 | 97 | 163 | 0.0 | 0.0 | 0.00 | 0.00 | 0.00 | 9 | 1009.0 |
| 20260507215625 | 97 | 164 | 0.0 | 0.0 | 0.00 | 0.00 | 0.00 | 8 | 1009.1 |
| 20260507215558 | 97 | 164 | 0.0 | 0.0 | 0.00 | 0.00 | 0.00 | 7 | 1009.2 |
| 20260507215417 | 97 | 164 | 0.0 | 0.0 | 0.00 | 0.00 | 0.00 | 8 | 1009.1 |
| 20260507215346 | 97 | 164 | 0.0 | 0.0 | 0.00 | 0.00 | 0.00 | 8 | 1009.1 |
| 20260507215226 | 97 | 163 | 0.0 | 0.0 | 0.00 | 0.00 | 0.00 | 10 | 1009.1 |
| 20260507215135 | 97 | 163 | 0.0 | 0.0 | 0.00 | 0.00 | 0.00 | 10 | 1009.3 |
| 20260507215057 | 97 | 163 | 0.0 | 0.0 | 0.00 | 0.00 | 0.00 | 11 | 1009.2 |
| 20260507214917 | 97 | 164 | 0.0 | 0.0 | 0.00 | 0.00 | 0.00 | 9 | 1009.3 |
| 20260507214846 | 97 | 162 | 0.0 | 0.0 | 0.00 | 0.00 | 0.00 | 9 | 1009.3 |
| 20260507214730 | 97 | 162 | 0.0 | 0.0 | 0.00 | 0.00 | 0.00 | 8 | 1009.4 |
| 20260507214640 | 96 | 162 | 0.0 | 0.0 | 0.00 | 0.00 | 0.00 | 8 | 1009.4 |
| 20260507214542 | 97 | 162 | 0.0 | 0.0 | 0.00 | 0.00 | 0.00 | 8 | 1009.4 |
| 20260507214449 | 96 | 162 | 0.0 | 0.0 | 0.00 | 0.00 | 0.00 | 11 | 1009.3 |
| 20260507214329 | 96 | 162 | 0.0 | 0.0 | 0.00 | 0.00 | 0.00 | 7 | 1009.5 |
| 20260507214239 | 96 | 162 | 0.0 | 0.0 | 0.00 | 0.00 | 0.00 | 9 | 1009.5 |
| 20260507214119 | 95 | 162 | 0.0 | 0.0 | 0.00 | 0.00 | 0.00 | 8 | 1009.5 |
| 20260507214024 | 96 | 162 | 0.0 | 0.0 | 0.00 | 0.00 | 0.00 | 8 | 1009.5 |
| 20260507213933 | 96 | 162 | 0.0 | 0.0 | 0.00 | 0.00 | 0.00 | 9 | 1009.5 |
| 20260507213835 | 96 | 162 | 0.0 | 1.0 | 0.00 | 0.00 | 0.00 | 8 | 1009.5 |
| 20260507213736 | 96 | 162 | 0.0 | 1.0 | 0.00 | 0.00 | 0.00 | 7 | 1009.5 |
| 20260507213618 | 96 | 162 | 0.0 | 1.0 | 0.00 | 0.00 | 0.00 | 7 | 1009.5 |
| 20260507213528 | 96 | 162 | 0.0 | 1.0 | 0.00 | 0.00 | 0.00 | 8 | 1009.5 |
| 20260507213431 | 96 | 162 | 0.0 | 1.0 | 0.00 | 0.00 | 0.00 | 7 | 1009.5 |
| 20260507213341 | 96 | 162 | 0.0 | 1.0 | 0.00 | 0.00 | 0.00 | 7 | 1009.5 |
| 20260507213223 | 96 | 162 | 0.0 | 1.0 | 0.00 | 0.00 | 0.00 | 8 | 1009.6 |
| 20260507213124 | 96 | 162 | 0.0 | 1.0 | 0.00 | 0.00 | 0.00 | 9 | 1009.7 |
| 20260507213025 | 96 | 162 | 0.0 | 1.0 | 0.00 | 0.00 | 0.00 | 8 | 1009.6 |
| 20260507212934 | 96 | 162 | 0.0 | 0.0 | 0.00 | 0.00 | 0.00 | 8 | 1009.6 |
| 20260507212822 | 96 | 162 | 0.0 | 3.0 | 0.00 | 0.00 | 0.00 | 9 | 1009.5 |
| 20260507212727 | 96 | 162 | 0.0 | 3.0 | 0.00 | 0.00 | 0.00 | 9 | 1009.6 |
| 20260507212629 | 96 | 162 | 0.0 | 3.0 | 0.00 | 0.00 | 0.00 | 9 | 1009.7 |
| 20260507212538 | 96 | 162 | 0.0 | 3.0 | 0.00 | 0.00 | 0.00 | 7 | 1009.7 |
| 20260507212420 | 96 | 161 | 0.0 | 3.0 | 0.00 | 0.00 | 0.00 | 7 | 1009.7 |
| 20260507212322 | 96 | 161 | 0.0 | 3.0 | 0.00 | 0.00 | 0.00 | 8 | 1009.6 |
| 20260507212224 | 96 | 158 | 0.0 | 3.0 | 0.00 | 0.00 | 0.00 | 8 | 1009.6 |
| 20260507212021 | 96 | 156 | 1.0 | 3.0 | 0.00 | 0.00 | 0.00 | 10 | 1009.6 |
| 20260507211923 | 96 | 155 | 0.0 | 3.0 | 0.00 | 0.00 | 0.00 | 8 | 1009.6 |
| 20260507211831 | 96 | 155 | 0.0 | 0.0 | 0.00 | 0.00 | 0.00 | 8 | 1009.6 |
| 20260507211620 | 96 | 155 | 0.0 | 0.0 | 0.00 | 0.00 | 0.00 | 8 | 1009.7 |
| 20260507211552 | 96 | 155 | 0.0 | 0.0 | 0.00 | 0.00 | 0.00 | 9 | 1009.7 |
| 20260507211432 | 96 | 154 | 0.0 | 0.0 | 0.00 | 0.00 | 0.00 | 7 | 1009.7 |
| 20260507211335 | 96 | 154 | 0.0 | 5.0 | 0.00 | 0.00 | 0.00 | 7 | 1009.7 |
| 20260507211223 | 96 | 154 | 0.0 | 5.0 | 0.00 | 0.00 | 0.00 | 11 | 1009.7 |
| 20260507211125 | 95 | 154 | 0.0 | 5.0 | 0.00 | 0.00 | 0.00 | 8 | 1009.7 |
| 20260507211032 | 95 | 154 | 0.0 | 5.0 | 0.00 | 0.00 | 0.00 | 8 | 1009.8 |
| 20260507210940 | 95 | 154 | 0.0 | 5.0 | 0.00 | 0.00 | 0.00 | 8 | 1009.8 |
| 20260507210825 | 95 | 154 | 0.0 | 5.0 | 0.00 | 0.00 | 0.00 | 8 | 1009.7 |
| 20260507210726 | 95 | 154 | 0.0 | 5.0 | 0.00 | 0.00 | 0.00 | 9 | 1009.8 |
| 20260507210630 | 95 | 154 | 1.0 | 5.0 | 0.00 | 0.00 | 0.00 | 7 | 1009.9 |
| 20260507210518 | 95 | 154 | 1.0 | 5.0 | 0.00 | 0.00 | 0.00 | 11 | 1009.8 |
| 20260507210420 | 95 | 148 | 1.0 | 3.0 | 0.00 | 0.00 | 0.00 | 8 | 1009.9 |
| 20260507210322 | 95 | 148 | 0.0 | 3.0 | 0.00 | 0.00 | 0.00 | 9 | 1009.9 |
| 20260507210230 | 95 | 148 | 0.0 | 0.0 | 0.00 | 0.00 | 0.00 | 8 | 1009.9 |
| 20260507210135 | 95 | 148 | 0.0 | 0.0 | 0.00 | 0.00 | 0.00 | 10 | 1010.0 |
| 20260507210033 | 95 | 148 | 0.0 | 0.0 | 0.00 | 0.00 | 0.00 | 8 | 1010.0 |
| 20260507205923 | 95 | 148 | 0.0 | 0.0 | 0.00 | 0.00 | 0.00 | 8 | 1010.0 |
| 20260507205830 | 95 | 148 | 0.0 | 0.0 | 0.00 | 0.00 | 0.00 | 8 | 1010.0 |
| 20260507205730 | 95 | 148 | 0.0 | 3.0 | 0.00 | 0.00 | 0.00 | 8 | 1010.1 |
| 20260507205639 | 95 | 148 | 0.0 | 3.0 | 0.00 | 0.00 | 0.00 | 9 | 1010.1 |
| 20260507205521 | 95 | 148 | 0.0 | 4.0 | 0.00 | 0.00 | 0.00 | 8 | 1010.1 |
| 20260507205427 | 95 | 148 | 0.0 | 4.0 | 0.00 | 0.00 | 0.00 | 8 | 1010.1 |
| 20260507205329 | 96 | 147 | 0.0 | 4.0 | 0.00 | 0.00 | 0.00 | 8 | 1010.1 |
| 20260507205237 | 96 | 147 | 0.0 | 4.0 | 0.00 | 0.00 | 0.00 | 9 | 1010.1 |
| 20260507205119 | 95 | 147 | 0.0 | 4.0 | 0.00 | 0.00 | 0.00 | 9 | 1010.1 |
| 20260507205048 | 95 | 147 | 0.0 | 4.0 | 0.00 | 0.00 | 0.00 | 8 | 1010.1 |
| 20260507204956 | 95 | 147 | 1.0 | 4.0 | 0.00 | 0.00 | 0.00 | 8 | 1010.1 |
| 20260507204817 | 95 | 147 | 1.0 | 4.0 | 0.00 | 0.00 | 0.00 | 8 | 1010.1 |
| 20260507204723 | 95 | 147 | 1.0 | 4.0 | 0.00 | 0.00 | 0.00 | 9 | 1010.0 |
| 20260507204653 | 95 | 146 | 1.0 | 3.0 | 0.00 | 0.00 | 0.00 | 8 | 1010.1 |
| 20260507204533 | 95 | 146 | 1.0 | 3.0 | 0.00 | 0.00 | 0.00 | 9 | 1010.1 |
| 20260507204503 | 95 | 146 | 0.0 | 1.0 | 0.00 | 0.00 | 0.00 | 9 | 1010.1 |
| 20260507204325 | 95 | 146 | 0.0 | 0.0 | 0.00 | 0.00 | 0.00 | 9 | 1010.1 |
| 20260507204227 | 95 | 145 | 0.0 | 0.0 | 0.00 | 0.00 | 0.00 | 9 | 1010.2 |
| 20260507204128 | 95 | 145 | 0.0 | 0.0 | 0.00 | 0.00 | 0.00 | 8 | 1010.2 |
| 20260507204041 | 96 | 145 | 0.0 | 0.0 | 0.00 | 0.00 | 0.00 | 9 | 1010.2 |
| 20260507203923 | 96 | 146 | 0.0 | 0.0 | 0.00 | 0.00 | 0.00 | 9 | 1010.2 |
| 20260507203825 | 96 | 146 | 0.0 | 0.0 | 0.00 | 0.00 | 0.00 | 8 | 1010.2 |
| 20260507203753 | 96 | 146 | 0.0 | 0.0 | 0.00 | 0.00 | 0.00 | 9 | 1010.2 |
| 20260507203633 | 95 | 145 | 0.0 | 0.0 | 0.00 | 0.00 | 0.00 | 9 | 1010.2 |
| 20260507203542 | 95 | 145 | 0.0 | 0.0 | 0.00 | 0.00 | 0.00 | 12 | 1010.2 |
| 20260507203428 | 95 | 145 | 0.0 | 0.0 | 0.00 | 0.00 | 0.00 | 10 | 1010.2 |
| 20260507203329 | 95 | 145 | 0.0 | 0.0 | 0.00 | 0.00 | 0.00 | 8 | 1010.3 |
| 20260507203230 | 95 | 145 | 0.0 | 5.0 | 0.00 | 0.00 | 0.00 | 8 | 1010.2 |
| 20260507203141 | 95 | 145 | 0.0 | 5.0 | 0.00 | 0.00 | 0.00 | 8 | 1010.2 |
| 20260507203022 | 94 | 146 | 0.0 | 5.0 | 0.00 | 0.00 | 0.00 | 10 | 1010.2 |
| 20260507202924 | 94 | 146 | 0.0 | 5.0 | 0.00 | 0.00 | 0.00 | 8 | 1010.2 |
| 20260507202830 | 94 | 146 | 0.0 | 5.0 | 0.00 | 0.00 | 0.00 | 9 | 1010.4 |
| 20260507202739 | 94 | 146 | 0.0 | 5.0 | 0.00 | 0.00 | 0.00 | 9 | 1010.4 |
| 20260507202621 | 94 | 146 | 0.0 | 5.0 | 0.00 | 0.00 | 0.00 | 9 | 1010.3 |
| 20260507202522 | 95 | 146 | 1.0 | 5.0 | 0.00 | 0.00 | 0.00 | 8 | 1010.4 |
| 20260507202451 | 95 | 146 | 2.0 | 5.0 | 0.00 | 0.00 | 0.00 | 8 | 1010.4 |
| 20260507202332 | 95 | 146 | 3.0 | 5.0 | 0.00 | 0.00 | 0.00 | 9 | 1010.4 |
| 20260507202218 | 94 | 146 | 1.0 | 4.0 | 0.00 | 0.00 | 0.00 | 11 | 1010.4 |
| 20260507202125 | 94 | 149 | 0.0 | 3.0 | 0.00 | 0.00 | 0.00 | 10 | 1010.4 |
| 20260507202026 | 94 | 149 | 0.0 | 3.0 | 0.00 | 0.00 | 0.00 | 11 | 1010.4 |
| 20260507201957 | 94 | 149 | 0.0 | 4.0 | 0.00 | 0.00 | 0.00 | 9 | 1010.4 |
| 20260507201737 | 94 | 149 | 0.0 | 4.0 | 0.00 | 0.00 | 0.00 | 8 | 1010.6 |
| 20260507201639 | 94 | 149 | 0.0 | 4.0 | 0.00 | 0.00 | 0.00 | 9 | 1010.6 |
| 20260507201526 | 95 | 149 | 0.0 | 4.0 | 0.00 | 0.00 | 0.00 | 9 | 1010.5 |
| 20260507201431 | 95 | 149 | 0.0 | 4.0 | 0.00 | 0.00 | 0.00 | 10 | 1010.6 |
| 20260507201333 | 95 | 149 | 0.0 | 4.0 | 0.00 | 0.00 | 0.00 | 10 | 1010.6 |
| 20260507201242 | 95 | 149 | 1.0 | 4.0 | 0.00 | 0.00 | 0.00 | 10 | 1010.6 |
| 20260507201121 | 95 | 149 | 0.0 | 5.0 | 0.00 | 0.00 | 0.00 | 10 | 1010.6 |
| 20260507201030 | 95 | 149 | 0.0 | 5.0 | 0.00 | 0.00 | 0.00 | 13 | 1010.6 |
| 20260507200930 | 95 | 149 | 0.0 | 7.0 | 0.00 | 0.00 | 0.00 | 13 | 1010.7 |
| 20260507200840 | 94 | 149 | 0.0 | 7.0 | 0.00 | 0.00 | 0.00 | 11 | 1010.7 |
| 20260507200725 | 94 | 149 | 0.0 | 7.0 | 0.00 | 0.00 | 0.00 | 9 | 1010.7 |
| 20260507200656 | 94 | 149 | 0.0 | 7.0 | 0.00 | 0.00 | 0.00 | 10 | 1010.7 |
| 20260507200516 | 94 | 151 | 0.0 | 7.0 | 0.00 | 0.00 | 0.00 | 9 | 1010.8 |
| 20260507200417 | 94 | 151 | 1.0 | 7.0 | 0.00 | 0.00 | 0.00 | 10 | 1010.8 |
| 20260507200346 | 94 | 151 | 2.0 | 7.0 | 0.00 | 0.00 | 0.00 | 10 | 1010.8 |
| 20260507200228 | 94 | 152 | 3.0 | 7.0 | 0.00 | 0.00 | 0.00 | 12 | 1010.8 |
| 20260507200130 | 93 | 153 | 2.0 | 7.0 | 0.00 | 0.00 | 0.00 | 10 | 1010.9 |
| 20260507200035 | 94 | 158 | 2.0 | 5.0 | 0.00 | 0.00 | 0.00 | 10 | 1010.9 |
| 20260507195945 | 94 | 160 | 2.0 | 5.0 | 0.00 | 0.00 | 0.00 | 11 | 1011.0 |
| 20260507195833 | 94 | 160 | 1.0 | 4.0 | 0.00 | 0.00 | 0.00 | 10 | 1010.9 |
| 20260507195715 | 94 | 163 | 1.0 | 3.0 | 0.00 | 0.00 | 0.00 | 11 | 1011.0 |
| 20260507195617 | 94 | 163 | 0.0 | 2.0 | 0.00 | 0.00 | 0.00 | 10 | 1011.1 |
| 20260507195519 | 94 | 168 | 0.0 | 1.0 | 0.00 | 0.00 | 0.00 | 10 | 1011.1 |
| 20260507195430 | 94 | 168 | 0.0 | 1.0 | 0.00 | 0.00 | 0.00 | 10 | 1011.1 |
| 20260507195330 | 94 | 169 | 0.0 | 1.0 | 0.00 | 0.00 | 0.00 | 14 | 1011.1 |
| 20260507195240 | 94 | 169 | 0.0 | 3.0 | 0.00 | 0.00 | 0.00 | 13 | 1011.1 |
| 20260507195120 | 94 | 169 | 0.0 | 3.0 | 0.00 | 0.00 | 0.00 | 12 | 1011.1 |
| 20260507195029 | 93 | 169 | 0.0 | 3.0 | 0.00 | 0.00 | 0.00 | 11 | 1011.2 |
| 20260507194950 | 93 | 168 | 0.0 | 3.0 | 0.00 | 0.00 | 0.00 | 11 | 1011.2 |
| 20260507194839 | 92 | 168 | 0.0 | 3.0 | 0.00 | 0.00 | 0.00 | 14 | 1011.2 |
| 20260507194724 | 92 | 167 | 0.0 | 3.0 | 0.00 | 0.00 | 0.00 | 11 | 1011.3 |
| 20260507194626 | 92 | 167 | 0.0 | 3.0 | 0.00 | 0.00 | 0.00 | 10 | 1011.3 |
| 20260507194535 | 92 | 167 | 1.0 | 3.0 | 0.00 | 0.00 | 0.00 | 10 | 1011.2 |
| 20260507194418 | 93 | 167 | 1.0 | 3.0 | 0.00 | 0.00 | 0.00 | 13 | 1011.3 |
| 20260507194339 | 92 | 167 | 0.0 | 2.0 | 0.00 | 0.00 | 0.00 | 11 | 1011.3 |
| 20260507194226 | 92 | 167 | 0.0 | 4.0 | 0.00 | 0.00 | 0.00 | 10 | 1011.3 |
| 20260507194129 | 93 | 168 | 0.0 | 4.0 | 0.00 | 0.00 | 0.00 | 10 | 1011.3 |
| 20260507194016 | 93 | 207 | 0.0 | 4.0 | 0.00 | 0.00 | 0.00 | 10 | 1011.4 |
| 20260507193917 | 93 | 267 | 0.0 | 6.0 | 0.00 | 0.00 | 0.00 | 10 | 1011.4 |
| 20260507193827 | 93 | 267 | 0.0 | 6.0 | 0.00 | 0.00 | 0.00 | 12 | 1011.4 |
| 20260507193729 | 93 | 267 | 0.0 | 6.0 | 0.00 | 0.00 | 0.00 | 10 | 1011.3 |
| 20260507193631 | 93 | 325 | 0.0 | 6.0 | 0.00 | 0.00 | 0.00 | 11 | 1011.4 |
| 20260507193516 | 93 | 326 | 1.0 | 6.0 | 0.00 | 0.00 | 0.00 | 11 | 1011.4 |
| 20260507193426 | 93 | 330 | 1.0 | 6.0 | 0.00 | 0.00 | 0.00 | 10 | 1011.4 |
| 20260507193349 | 93 | 330 | 1.0 | 6.0 | 0.00 | 0.00 | 0.00 | 11 | 1011.4 |
| 20260507193236 | 93 | 319 | 2.0 | 6.0 | 0.00 | 0.00 | 0.00 | 11 | 1011.4 |
| 20260507193118 | 93 | 319 | 2.0 | 6.0 | 0.00 | 0.00 | 0.00 | 10 | 1011.5 |
| 20260507193038 | 93 | 321 | 1.0 | 5.0 | 0.00 | 0.00 | 0.00 | 11 | 1011.5 |
| 20260507192946 | 92 | 321 | 0.0 | 2.0 | 0.00 | 0.00 | 0.00 | 11 | 1011.6 |
| 20260507192828 | 92 | 64 | 0.0 | 2.0 | 0.00 | 0.00 | 0.00 | 13 | 1011.5 |
| 20260507192719 | 92 | 64 | 0.0 | 2.0 | 0.00 | 0.00 | 0.00 | 10 | 1011.6 |
| 20260507192641 | 92 | 64 | 0.0 | 2.0 | 0.00 | 0.00 | 0.00 | 10 | 1011.7 |
| 20260507192530 | 92 | 64 | 0.0 | 2.0 | 0.00 | 0.00 | 0.00 | 12 | 1011.8 |
| 20260507192431 | 92 | 64 | 0.0 | 2.0 | 0.00 | 0.00 | 0.00 | 13 | 1011.7 |
| 20260507192333 | 92 | 65 | 0.0 | 2.0 | 0.00 | 0.00 | 0.00 | 12 | 1011.8 |
| 20260507192241 | 92 | 65 | 0.0 | 2.0 | 0.00 | 0.00 | 0.00 | 11 | 1011.8 |
| 20260507192142 | 92 | 65 | 0.0 | 2.0 | 0.00 | 0.00 | 0.00 | 10 | 1011.8 |
| 20260507192034 | 93 | 65 | 0.0 | 2.0 | 0.00 | 0.00 | 0.00 | 11 | 1011.8 |
| 20260507191916 | 93 | 65 | 1.0 | 2.0 | 0.00 | 0.00 | 0.00 | 12 | 1011.8 |
| 20260507191828 | 93 | 65 | 0.0 | 2.0 | 0.00 | 0.00 | 0.00 | 10 | 1011.8 |
| 20260507191737 | 93 | 65 | 0.0 | 1.0 | 0.00 | 0.00 | 0.00 | 11 | 1011.8 |
| 20260507191619 | 92 | 65 | 0.0 | 0.0 | 0.00 | 0.00 | 0.00 | 13 | 1011.8 |
| 20260507191521 | 92 | 65 | 0.0 | 0.0 | 0.00 | 0.00 | 0.00 | 12 | 1011.9 |
| 20260507191432 | 92 | 65 | 0.0 | 0.0 | 0.00 | 0.00 | 0.00 | 10 | 1011.9 |
| 20260507191335 | 92 | 65 | 0.0 | 0.0 | 0.00 | 0.00 | 0.00 | 11 | 1012.0 |
| 20260507191216 | 92 | 65 | 0.0 | 0.0 | 0.00 | 0.00 | 0.00 | 11 | 1011.9 |
| 20260507191118 | 92 | 65 | 0.0 | 0.0 | 0.00 | 0.00 | 0.00 | 12 | 1012.0 |
| 20260507191028 | 91 | 67 | 0.0 | 0.0 | 0.00 | 0.00 | 0.00 | 11 | 1012.0 |
| 20260507190930 | 91 | 67 | 0.0 | 0.0 | 0.00 | 0.00 | 0.00 | 11 | 1011.9 |
| 20260507190901 | 91 | 67 | 0.0 | 0.0 | 0.00 | 0.00 | 0.00 | 11 | 1011.9 |
| 20260507190722 | 91 | 66 | 0.0 | 0.0 | 0.00 | 0.00 | 0.00 | 11 | 1012.0 |
| 20260507190644 | 92 | 65 | 0.0 | 0.0 | 0.00 | 0.00 | 0.00 | 11 | 1011.9 |
| 20260507190532 | 92 | 65 | 0.0 | 0.0 | 0.00 | 0.00 | 0.00 | 10 | 1012.0 |
| 20260507190431 | 92 | 68 | 0.0 | 0.0 | 0.00 | 0.00 | 0.00 | 10 | 1012.1 |
| 20260507190342 | 92 | 68 | 0.0 | 0.0 | 0.00 | 0.00 | 0.00 | 12 | 1012.1 |
| 20260507190224 | 92 | 68 | 0.0 | 0.0 | 0.00 | 0.00 | 0.00 | 16 | 1012.0 |
| 20260507190130 | 91 | 68 | 0.0 | 0.0 | 0.00 | 0.00 | 0.00 | 13 | 1012.0 |
| 20260507190050 | 91 | 68 | 0.0 | 3.0 | 0.00 | 0.00 | 0.00 | 11 | 1012.0 |
| 20260507185921 | 91 | 68 | 0.0 | 3.0 | 0.00 | 0.00 | 0.00 | 11 | 1012.1 |
| 20260507185820 | 91 | 68 | 0.0 | 3.0 | 0.00 | 0.00 | 0.00 | 11 | 1012.0 |
| 20260507185727 | 91 | 68 | 0.0 | 3.0 | 0.00 | 0.00 | 0.00 | 11 | 1012.1 |
| 20260507185656 | 91 | 68 | 0.0 | 3.0 | 0.00 | 0.00 | 0.00 | 11 | 1012.0 |
| 20260507185517 | 91 | 66 | 0.0 | 3.0 | 0.00 | 0.00 | 0.00 | 11 | 1012.1 |
| 20260507185428 | 92 | 65 | 0.0 | 3.0 | 0.00 | 0.00 | 0.00 | 12 | 1012.2 |
| 20260507185329 | 92 | 63 | 0.0 | 3.0 | 0.00 | 0.00 | 0.00 | 12 | 1012.2 |
| 20260507185231 | 92 | 61 | 1.0 | 3.0 | 0.00 | 0.00 | 0.00 | 10 | 1012.2 |
| 20260507185140 | 92 | 60 | 1.0 | 3.0 | 0.00 | 0.00 | 0.00 | 11 | 1012.2 |
| 20260507185023 | 92 | 58 | 1.0 | 3.0 | 0.00 | 0.00 | 0.00 | 12 | 1012.3 |
| 20260507184925 | 92 | 58 | 0.0 | 0.0 | 0.00 | 0.00 | 0.00 | 10 | 1012.3 |
| 20260507184831 | 92 | 57 | 0.0 | 0.0 | 0.00 | 0.00 | 0.00 | 11 | 1012.3 |
| 20260507184741 | 92 | 56 | 0.0 | 0.0 | 0.00 | 0.00 | 0.00 | 11 | 1012.3 |
| 20260507184622 | 92 | 53 | 0.0 | 0.0 | 0.00 | 0.00 | 0.00 | 12 | 1012.3 |
| 20260507184523 | 91 | 52 | 0.0 | 0.0 | 0.00 | 0.00 | 0.00 | 14 | 1012.2 |
| 20260507184426 | 91 | 52 | 0.0 | 0.0 | 0.00 | 0.00 | 0.00 | 13 | 1012.3 |
| 20260507184335 | 90 | 52 | 0.0 | 0.0 | 0.00 | 0.00 | 0.00 | 11 | 1012.2 |
| 20260507184222 | 90 | 52 | 0.0 | 0.0 | 0.00 | 0.00 | 0.00 | 11 | 1012.2 |
| 20260507184123 | 90 | 52 | 0.0 | 0.0 | 0.00 | 0.00 | 0.00 | 13 | 1012.2 |
| 20260507184053 | 90 | 52 | 0.0 | 0.0 | 0.00 | 0.00 | 0.00 | 12 | 1012.2 |
| 20260507183935 | 90 | 52 | 0.0 | 0.0 | 0.00 | 0.00 | 0.00 | 14 | 1012.3 |
| 20260507183816 | 90 | 52 | 0.0 | 0.0 | 0.00 | 0.00 | 0.00 | 11 | 1012.3 |
| 20260507183724 | 91 | 52 | 0.0 | 0.0 | 0.00 | 0.00 | 0.00 | 14 | 1012.3 |
| 20260507183626 | 90 | 52 | 0.0 | 0.0 | 0.00 | 0.00 | 0.00 | 15 | 1012.2 |
| 20260507183539 | 90 | 52 | 0.0 | 0.0 | 0.00 | 0.00 | 0.00 | 12 | 1012.2 |
| 20260507183420 | 90 | 52 | 0.0 | 0.0 | 0.00 | 0.00 | 0.00 | 11 | 1012.4 |
| 20260507183321 | 90 | 52 | 0.0 | 0.0 | 0.00 | 0.00 | 0.00 | 12 | 1012.5 |
| 20260507183231 | 90 | 41 | 0.0 | 0.0 | 0.00 | 0.00 | 0.00 | 12 | 1012.4 |
| 20260507183131 | 90 | 34 | 0.0 | 0.0 | 0.00 | 0.00 | 0.00 | 11 | 1012.5 |
| 20260507183019 | 90 | 33 | 0.0 | 0.0 | 0.00 | 0.00 | 0.00 | 12 | 1012.4 |
| 20260507182919 | 91 | 33 | 0.0 | 0.0 | 0.00 | 0.00 | 0.00 | 13 | 1012.4 |
| 20260507182831 | 91 | 73 | 0.0 | 0.0 | 0.00 | 0.00 | 0.00 | 14 | 1012.5 |
| 20260507182732 | 90 | 72 | 0.0 | 0.0 | 0.00 | 0.00 | 0.00 | 12 | 1012.4 |
| 20260507182634 | 90 | 72 | 0.0 | 0.0 | 0.00 | 0.00 | 0.00 | 12 | 1012.5 |
| 20260507182516 | 90 | 71 | 0.0 | 0.0 | 0.00 | 0.00 | 0.00 | 16 | 1012.5 |
| 20260507182425 | 90 | 69 | 0.0 | 0.0 | 0.00 | 0.00 | 0.00 | 15 | 1012.5 |
| 20260507182333 | 91 | 68 | 0.0 | 0.0 | 0.00 | 0.00 | 0.00 | 13 | 1012.6 |
| 20260507182233 | 91 | 68 | 0.0 | 0.0 | 0.00 | 0.00 | 0.00 | 14 | 1012.6 |
| 20260507182118 | 90 | 67 | 0.0 | 0.0 | 0.00 | 0.00 | 0.00 | 12 | 1012.6 |
| 20260507182029 | 90 | 63 | 0.0 | 0.0 | 0.00 | 0.00 | 0.00 | 13 | 1012.6 |
| 20260507181930 | 90 | 63 | 0.0 | 0.0 | 0.00 | 0.00 | 0.00 | 13 | 1012.7 |
| 20260507181831 | 90 | 63 | 0.0 | 0.0 | 0.00 | 0.00 | 0.00 | 13 | 1012.6 |
| 20260507181741 | 90 | 63 | 0.0 | 0.0 | 0.00 | 0.00 | 0.00 | 12 | 1012.6 |
| 20260507181623 | 89 | 62 | 0.0 | 0.0 | 0.00 | 0.00 | 0.00 | 12 | 1012.7 |
| 20260507181529 | 89 | 62 | 0.0 | 0.0 | 0.00 | 0.00 | 0.00 | 16 | 1012.6 |
| 20260507181437 | 89 | 62 | 0.0 | 0.0 | 0.00 | 0.00 | 0.00 | 13 | 1012.7 |
| 20260507181318 | 89 | 142 | 0.0 | 0.0 | 0.00 | 0.00 | 0.00 | 15 | 1012.7 |
| 20260507181221 | 89 | 142 | 0.0 | 0.0 | 0.00 | 0.00 | 0.00 | 12 | 1012.7 |
| 20260507181138 | 88 | 142 | 0.0 | 0.0 | 0.00 | 0.00 | 0.00 | 14 | 1012.7 |
| 20260507181018 | 88 | 142 | 0.0 | 0.0 | 0.00 | 0.00 | 0.00 | 13 | 1012.7 |
| 20260507180920 | 88 | 142 | 0.0 | 0.0 | 0.00 | 0.00 | 0.00 | 12 | 1012.7 |
| 20260507180833 | 89 | 142 | 0.0 | 0.0 | 0.00 | 0.00 | 0.00 | 14 | 1012.7 |
| 20260507180735 | 89 | 142 | 0.0 | 0.0 | 0.00 | 0.00 | 0.00 | 14 | 1012.8 |
| 20260507180644 | 89 | 142 | 0.0 | 0.0 | 0.00 | 0.00 | 0.00 | 11 | 1012.7 |
| 20260507180524 | 89 | 143 | 0.0 | 0.0 | 0.00 | 0.00 | 0.00 | 12 | 1012.8 |
| 20260507180427 | 89 | 143 | 0.0 | 1.0 | 0.00 | 0.00 | 0.00 | 12 | 1012.7 |
| 20260507180336 | 89 | 143 | 0.0 | 1.0 | 0.00 | 0.00 | 0.00 | 12 | 1012.8 |
| 20260507180241 | 89 | 145 | 0.0 | 1.0 | 0.00 | 0.00 | 0.00 | 13 | 1012.7 |
| 20260507180121 | 89 | 146 | 0.0 | 1.0 | 0.00 | 0.00 | 0.00 | 13 | 1012.7 |
| 20260507180043 | 89 | 146 | 0.0 | 1.0 | 0.00 | 0.00 | 0.00 | 13 | 1012.7 |
| 20260507175934 | 88 | 146 | 0.0 | 1.0 | 0.00 | 0.00 | 0.00 | 12 | 1012.6 |
| 20260507175816 | 88 | 146 | 0.0 | 1.0 | 0.00 | 0.00 | 0.00 | 13 | 1012.6 |
| 20260507175726 | 88 | 146 | 0.0 | 1.0 | 0.00 | 0.00 | 0.00 | 13 | 1012.7 |
| 20260507175647 | 88 | 146 | 0.0 | 1.0 | 0.00 | 0.00 | 0.00 | 13 | 1012.7 |